CW0099 Weather Reports


Display with metric or nautical units.
time (UTC)temp
F
wind
direction
speed
MPH
gust
MPH
rain 1hr
in
rain 24hr
in
rain mn
in
humidity
%
barometer
mb
20220126120440 8 0 0.0 0.0 0.00 0.00 0.00 64 1034.4
20220126120339 8 0 2.0 0.0 0.00 0.00 0.00 63 1034.3
20220126120238 8 0 2.0 0.0 0.00 0.00 0.00 63 1034.4
20220126120141 8 0 0.0 0.0 0.00 0.00 0.00 63 1034.3
20220126120041 8 0 1.0 0.0 0.00 0.00 0.00 63 1034.2
20220126115943 8 0 0.0 0.0 0.00 0.00 0.00 63 1034.4
20220126115840 8 0 1.0 0.0 0.00 0.00 0.00 63 1034.3
20220126115739 8 0 2.0 0.0 0.00 0.00 0.00 63 1034.3
20220126115637 8 0 2.0 0.0 0.00 0.00 0.00 62 1034.4
20220126115540 8 0 3.0 0.0 0.00 0.00 0.00 62 1034.3
20220126115440 8 0 0.0 0.0 0.00 0.00 0.00 62 1034.4
20220126115341 8 0 1.0 0.0 0.00 0.00 0.00 62 1034.4
20220126115239 8 0 2.0 0.0 0.00 0.00 0.00 62 1034.3
20220126115136 8 0 1.0 0.0 0.00 0.00 0.00 62 1034.3
20220126115036 8 0 1.0 0.0 0.00 0.00 0.00 62 1034.2
20220126114938 8 0 3.0 0.0 0.00 0.00 0.00 62 1034.1
20220126114843 8 0 2.0 0.0 0.00 0.00 0.00 62 1034.3
20220126114741 8 0 1.0 0.0 0.00 0.00 0.00 61 1034.2
20220126114641 8 0 1.0 0.0 0.00 0.00 0.00 61 1034.3
20220126114540 8 0 3.0 0.0 0.00 0.00 0.00 61 1034.3
20220126114437 8 0 0.0 0.0 0.00 0.00 0.00 61 1034.3
20220126114339 8 0 0.0 0.0 0.00 0.00 0.00 61 1034.3
20220126114241 8 0 0.0 0.0 0.00 0.00 0.00 61 1034.2
20220126114124 8 0 0.0 0.0 0.00 0.00 0.00 61 1034.2
20220126114045 8 0 2.0 0.0 0.00 0.00 0.00 61 1034.2
20220126113943 8 0 2.0 0.0 0.00 0.00 0.00 61 1034.3
20220126113843 8 0 2.0 0.0 0.00 0.00 0.00 61 1034.2
20220126113740 8 0 1.0 0.0 0.00 0.00 0.00 61 1034.3
20220126113640 8 0 3.0 0.0 0.00 0.00 0.00 61 1034.3
20220126113543 8 0 3.0 0.0 0.00 0.00 0.00 60 1034.3
20220126113443 8 0 0.0 0.0 0.00 0.00 0.00 61 1034.3
20220126113323 8 0 0.0 0.0 0.00 0.00 0.00 60 1034.3
20220126113243 8 0 2.0 0.0 0.00 0.00 0.00 60 1034.3
20220126113142 8 0 1.0 0.0 0.00 0.00 0.00 60 1034.3
20220126113040 8 0 0.0 0.0 0.00 0.00 0.00 60 1034.4
20220126112942 8 0 2.0 0.0 0.00 0.00 0.00 60 1034.3
20220126112842 8 0 1.0 0.0 0.00 0.00 0.00 60 1034.3
20220126112741 8 0 0.0 0.0 0.00 0.00 0.00 60 1034.4
20220126112639 8 0 2.0 0.0 0.00 0.00 0.00 60 1034.2
20220126112538 8 0 1.0 0.0 0.00 0.00 0.00 60 1034.2
20220126112438 8 0 2.0 0.0 0.00 0.00 0.00 60 1034.4
20220126112337 8 0 2.0 0.0 0.00 0.00 0.00 60 1034.3
20220126112241 8 0 1.0 0.0 0.00 0.00 0.00 59 1034.3
20220126112140 8 0 1.0 0.0 0.00 0.00 0.00 60 1034.4
20220126112039 8 0 2.0 0.0 0.00 0.00 0.00 59 1034.3
20220126111939 8 0 2.0 0.0 0.00 0.00 0.00 59 1034.3
20220126111839 8 0 0.0 0.0 0.00 0.00 0.00 59 1034.2
20220126111737 8 0 4.0 0.0 0.00 0.00 0.00 59 1034.3
20220126111641 8 0 3.0 0.0 0.00 0.00 0.00 59 1034.2
20220126111541 8 0 2.0 0.0 0.00 0.00 0.00 59 1034.3
20220126111440 8 0 3.0 0.0 0.00 0.00 0.00 59 1034.1
20220126111341 8 0 1.0 0.0 0.00 0.00 0.00 59 1034.3
20220126111241 8 2 3.0 0.0 0.00 0.00 0.00 59 1034.2
20220126111140 8 2 3.0 0.0 0.00 0.00 0.00 59 1034.2
20220126111040 8 2 2.0 0.0 0.00 0.00 0.00 59 1034.3
20220126110923 8 2 1.0 0.0 0.00 0.00 0.00 59 1034.3
20220126110824 8 2 2.0 0.0 0.00 0.00 0.00 59 1034.3
20220126110746 8 2 2.0 0.0 0.00 0.00 0.00 59 1034.3
20220126110643 8 3 1.0 0.0 0.00 0.00 0.00 59 1034.4
20220126110542 8 3 2.0 0.0 0.00 0.00 0.00 59 1034.4
20220126110442 8 3 2.0 0.0 0.00 0.00 0.00 59 1034.2
20220126110326 8 3 1.0 0.0 0.00 0.00 0.00 59 1034.4
20220126110225 8 3 2.0 0.0 0.00 0.00 0.00 59 1034.4
20220126110124 8 7 5.0 0.0 0.00 0.00 0.00 59 1034.3
20220126110046 8 12 3.0 0.0 0.00 0.00 0.00 59 1034.4
20220126105941 8 13 3.0 0.0 0.00 0.00 0.00 59 1034.4
20220126105841 8 13 2.0 0.0 0.00 0.00 0.00 59 1034.5
20220126105724 8 350 4.0 0.0 0.00 0.00 0.00 59 1034.3
20220126105625 8 347 2.0 0.0 0.00 0.00 0.00 59 1034.4
20220126105545 8 347 2.0 0.0 0.00 0.00 0.00 59 1034.4
20220126105444 8 347 2.0 0.0 0.00 0.00 0.00 59 1034.4
20220126105341 8 347 2.0 0.0 0.00 0.00 0.00 59 1034.3
20220126105241 8 347 2.0 0.0 0.00 0.00 0.00 59 1034.4
20220126105122 8 347 0.0 0.0 0.00 0.00 0.00 59 1034.4
20220126105027 8 347 0.0 0.0 0.00 0.00 0.00 59 1034.4
20220126104928 9 347 2.0 0.0 0.00 0.00 0.00 59 1034.3
20220126104828 8 347 1.0 0.0 0.00 0.00 0.00 59 1034.3
20220126104727 9 347 1.0 0.0 0.00 0.00 0.00 59 1034.4
20220126104626 9 347 1.0 0.0 0.00 0.00 0.00 59 1034.5
20220126104528 9 347 1.0 0.0 0.00 0.00 0.00 59 1034.5
20220126104431 9 347 2.0 0.0 0.00 0.00 0.00 59 1034.5
20220126104332 9 347 2.0 0.0 0.00 0.00 0.00 59 1034.6
20220126104232 9 347 2.0 0.0 0.00 0.00 0.00 58 1034.3
20220126104133 9 347 2.0 0.0 0.00 0.00 0.00 58 1034.5
20220126104033 9 347 0.0 0.0 0.00 0.00 0.00 58 1034.4
20220126103931 9 347 0.0 0.0 0.00 0.00 0.00 58 1034.4
20220126103830 9 347 0.0 0.0 0.00 0.00 0.00 58 1034.4
20220126103733 9 347 0.0 0.0 0.00 0.00 0.00 58 1034.3
20220126103633 9 347 0.0 0.0 0.00 0.00 0.00 58 1034.4
20220126103533 9 347 2.0 0.0 0.00 0.00 0.00 58 1034.3
20220126103433 9 347 2.0 0.0 0.00 0.00 0.00 58 1034.5
20220126103332 9 346 2.0 0.0 0.00 0.00 0.00 58 1034.4
20220126103233 9 348 3.0 0.0 0.00 0.00 0.00 58 1034.4
20220126103136 9 348 2.0 0.0 0.00 0.00 0.00 58 1034.3
20220126103035 9 347 4.0 0.0 0.00 0.00 0.00 58 1034.3
20220126102937 9 345 1.0 0.0 0.00 0.00 0.00 58 1034.3
20220126102834 9 345 2.0 0.0 0.00 0.00 0.00 58 1034.4
20220126102734 9 345 1.0 0.0 0.00 0.00 0.00 58 1034.3
20220126102635 9 345 1.0 0.0 0.00 0.00 0.00 58 1034.3
20220126102534 9 345 2.0 0.0 0.00 0.00 0.00 58 1034.3
20220126102437 9 345 2.0 0.0 0.00 0.00 0.00 58 1034.4
20220126102338 9 345 0.0 0.0 0.00 0.00 0.00 58 1034.2
20220126102239 9 345 0.0 0.0 0.00 0.00 0.00 58 1034.3
20220126102137 9 345 1.0 0.0 0.00 0.00 0.00 58 1034.4
20220126102038 9 345 1.0 0.0 0.00 0.00 0.00 58 1034.5
20220126101939 9 345 2.0 0.0 0.00 0.00 0.00 58 1034.5
20220126101844 9 345 2.0 0.0 0.00 0.00 0.00 58 1034.4
20220126101722 9 345 1.0 0.0 0.00 0.00 0.00 59 1034.4
20220126101625 9 345 2.0 0.0 0.00 0.00 0.00 59 1034.3
20220126101525 9 345 1.0 0.0 0.00 0.00 0.00 59 1034.4
20220126101425 9 345 2.0 0.0 0.00 0.00 0.00 59 1034.4
20220126101325 9 345 4.0 0.0 0.00 0.00 0.00 59 1034.3
20220126101228 9 345 2.0 0.0 0.00 0.00 0.00 59 1034.4
20220126101130 9 345 1.0 0.0 0.00 0.00 0.00 59 1034.3
20220126101029 9 346 4.0 0.0 0.00 0.00 0.00 59 1034.4
20220126100927 9 351 4.0 0.0 0.00 0.00 0.00 59 1034.3
20220126100825 9 351 3.0 0.0 0.00 0.00 0.00 60 1034.3
20220126100724 9 352 4.0 0.0 0.00 0.00 0.00 60 1034.3
20220126100644 9 352 3.0 0.0 0.00 0.00 0.00 60 1034.3
20220126100527 9 352 4.0 0.0 0.00 0.00 0.00 60 1034.2
20220126100428 9 348 5.0 0.0 0.00 0.00 0.00 61 1034.2
20220126100327 9 20 5.0 0.0 0.00 0.00 0.00 61 1034.4
20220126100247 9 339 6.0 0.0 0.00 0.00 0.00 61 1034.3
20220126100142 9 0 2.0 0.0 0.00 0.00 0.00 61 1034.3
20220126100042 9 354 2.0 0.0 0.00 0.00 0.00 62 1034.2
20220126095926 9 355 4.0 0.0 0.00 0.00 0.00 62 1034.3
20220126095825 9 355 3.0 0.0 0.00 0.00 0.00 62 1034.3
20220126095744 9 354 3.0 0.0 0.00 0.00 0.00 62 1034.2
20220126095643 9 351 2.0 0.0 0.00 0.00 0.00 63 1034.2
20220126095523 10 350 2.0 0.0 0.00 0.00 0.00 63 1034.3
20220126095444 10 353 3.0 0.0 0.00 0.00 0.00 63 1034.2
20220126095342 10 356 4.0 0.0 0.00 0.00 0.00 63 1034.2
20220126095226 10 338 8.0 0.0 0.00 0.00 0.00 63 1034.2
20220126095126 10 342 1.0 0.0 0.00 0.00 0.00 63 1034.1
20220126095045 10 342 2.0 0.0 0.00 0.00 0.00 63 1034.2
20220126094943 10 342 2.0 0.0 0.00 0.00 0.00 64 1034.3
20220126094839 10 342 3.0 0.0 0.00 0.00 0.00 64 1034.1
20220126094722 10 339 5.0 0.0 0.00 0.00 0.00 64 1034.2
20220126094630 10 339 4.0 0.0 0.00 0.00 0.00 64 1034.2
20220126094529 10 339 2.0 0.0 0.00 0.00 0.00 64 1034.2
20220126094426 10 339 2.0 0.0 0.00 0.00 0.00 65 1034.0
20220126094329 10 338 3.0 0.0 0.00 0.00 0.00 65 1034.1
20220126094247 10 338 2.0 0.0 0.00 0.00 0.00 65 1034.1
20220126094144 10 337 4.0 0.0 0.00 0.00 0.00 65 1034.2
20220126094040 10 334 2.0 0.0 0.00 0.00 0.00 65 1034.1
20220126093925 10 333 4.0 0.0 0.00 0.00 0.00 65 1034.2
20220126093825 10 336 5.0 0.0 0.00 0.00 0.00 65 1034.1
20220126093726 10 349 2.0 0.0 0.00 0.00 0.00 65 1034.2
20220126093627 10 349 4.0 0.0 0.00 0.00 0.00 65 1034.2
20220126093527 10 349 2.0 0.0 0.00 0.00 0.00 65 1034.1
20220126093427 10 352 4.0 0.0 0.00 0.00 0.00 65 1034.2
20220126093329 10 352 2.0 0.0 0.00 0.00 0.00 66 1034.2
20220126093233 10 352 4.0 0.0 0.00 0.00 0.00 65 1034.1
20220126093135 10 353 2.0 0.0 0.00 0.00 0.00 66 1034.1
20220126093032 10 354 3.0 0.0 0.00 0.00 0.00 65 1034.3
20220126092933 10 358 1.0 0.0 0.00 0.00 0.00 65 1034.1
20220126092833 10 359 3.0 0.0 0.00 0.00 0.00 65 1034.2
20220126092735 10 0 1.0 0.0 0.00 0.00 0.00 65 1034.2
20220126092638 10 0 2.0 0.0 0.00 0.00 0.00 65 1034.2
20220126092542 10 0 3.0 0.0 0.00 0.00 0.00 65 1034.2
20220126092425 10 0 5.0 0.0 0.00 0.00 0.00 65 1034.2
20220126092343 10 357 0.0 0.0 0.00 0.00 0.00 65 1033.9
20220126092241 10 357 3.0 0.0 0.00 0.00 0.00 65 1034.2
20220126092142 10 357 3.0 0.0 0.00 0.00 0.00 65 1034.1
20220126092026 10 357 1.0 0.0 0.00 0.00 0.00 65 1034.2
20220126091925 10 357 3.0 0.0 0.00 0.00 0.00 65 1034.2
20220126091827 10 356 2.0 0.0 0.00 0.00 0.00 65 1034.1
20220126091729 10 351 2.0 0.0 0.00 0.00 0.00 66 1034.0
20220126091626 11 346 3.0 0.0 0.00 0.00 0.00 66 1034.1
20220126091523 11 346 2.0 0.0 0.00 0.00 0.00 65 1034.1
20220126091431 11 346 4.0 0.0 0.00 0.00 0.00 66 1034.1
20220126091328 11 347 2.0 0.0 0.00 0.00 0.00 65 1034.1
20220126091230 11 347 3.0 0.0 0.00 0.00 0.00 65 1034.0
20220126091132 11 347 0.0 0.0 0.00 0.00 0.00 65 1034.2
20220126091033 11 347 3.0 0.0 0.00 0.00 0.00 65 1034.1
20220126090932 11 347 2.0 0.0 0.00 0.00 0.00 65 1034.2
20220126090834 11 347 3.0 0.0 0.00 0.00 0.00 65 1034.1
20220126090738 11 347 2.0 0.0 0.00 0.00 0.00 65 1034.2
20220126090637 11 347 1.0 0.0 0.00 0.00 0.00 65 1034.2
20220126090537 11 347 1.0 0.0 0.00 0.00 0.00 65 1034.0
20220126090437 11 347 2.0 0.0 0.00 0.00 0.00 65 1034.1
20220126090337 11 347 3.0 0.0 0.00 0.00 0.00 65 1034.1
20220126090237 11 347 1.0 0.0 0.00 0.00 0.00 65 1034.0
20220126090144 11 347 2.0 0.0 0.00 0.00 0.00 65 1034.2
20220126090023 11 347 4.0 0.0 0.00 0.00 0.00 65 1034.2
20220126085924 11 347 3.0 0.0 0.00 0.00 0.00 64 1034.2
20220126085824 11 347 1.0 0.0 0.00 0.00 0.00 65 1034.1
20220126085724 11 347 3.0 0.0 0.00 0.00 0.00 64 1034.1
20220126085627 11 347 2.0 0.0 0.00 0.00 0.00 64 1034.2
20220126085531 11 346 5.0 0.0 0.00 0.00 0.00 64 1034.3
20220126085429 11 345 1.0 0.0 0.00 0.00 0.00 64 1034.2
20220126085330 11 345 2.0 0.0 0.00 0.00 0.00 64 1034.2
20220126085231 11 345 3.0 0.0 0.00 0.00 0.00 64 1034.1
20220126085131 11 345 5.0 0.0 0.00 0.00 0.00 64 1034.1
20220126085031 11 345 2.0 0.0 0.00 0.00 0.00 64 1034.2
20220126084931 11 345 4.0 0.0 0.00 0.00 0.00 64 1034.2
20220126084836 11 345 4.0 0.0 0.00 0.00 0.00 64 1034.1
20220126084736 11 345 2.0 0.0 0.00 0.00 0.00 64 1034.2
20220126084637 11 345 5.0 0.0 0.00 0.00 0.00 64 1034.2
20220126084539 11 339 1.0 0.0 0.00 0.00 0.00 64 1034.2
20220126084437 11 339 2.0 0.0 0.00 0.00 0.00 64 1034.1
20220126084339 11 339 1.0 0.0 0.00 0.00 0.00 64 1034.1
20220126084241 11 339 2.0 0.0 0.00 0.00 0.00 64 1034.0
20220126084138 11 339 1.0 0.0 0.00 0.00 0.00 64 1034.0
20220126084040 11 339 5.0 0.0 0.00 0.00 0.00 64 1034.2
20220126083942 11 339 6.0 0.0 0.00 0.00 0.00 63 1034.2
20220126083841 11 339 5.0 0.0 0.00 0.00 0.00 64 1034.1
20220126083723 11 341 2.0 0.0 0.00 0.00 0.00 63 1034.0
20220126083629 11 341 2.0 0.0 0.00 0.00 0.00 63 1034.0
20220126083530 11 341 5.0 0.0 0.00 0.00 0.00 63 1033.9
20220126083430 11 341 1.0 0.0 0.00 0.00 0.00 63 1034.0
20220126083333 11 341 5.0 0.0 0.00 0.00 0.00 63 1034.1
20220126083230 11 344 1.0 0.0 0.00 0.00 0.00 63 1034.0
20220126083130 11 345 3.0 0.0 0.00 0.00 0.00 63 1034.0
20220126083030 11 344 2.0 0.0 0.00 0.00 0.00 63 1034.1
20220126082936 11 344 2.0 0.0 0.00 0.00 0.00 63 1033.9
20220126082835 11 344 1.0 0.0 0.00 0.00 0.00 63 1034.0
20220126082735 11 344 4.0 0.0 0.00 0.00 0.00 63 1034.1
20220126082635 11 345 4.0 0.0 0.00 0.00 0.00 63 1033.9
20220126082536 11 353 3.0 0.0 0.00 0.00 0.00 63 1033.9
20220126082436 11 348 5.0 0.0 0.00 0.00 0.00 63 1034.1
20220126082342 11 340 4.0 0.0 0.00 0.00 0.00 63 1034.0
20220126082241 11 340 4.0 0.0 0.00 0.00 0.00 63 1034.1
20220126082144 11 342 3.0 0.0 0.00 0.00 0.00 63 1034.1
20220126082042 11 342 2.0 0.0 0.00 0.00 0.00 62 1034.0
20220126081942 11 339 3.0 0.0 0.00 0.00 0.00 62 1034.1
20220126081842 12 339 4.0 0.0 0.00 0.00 0.00 63 1034.0
20220126081727 12 339 1.0 0.0 0.00 0.00 0.00 62 1034.1
20220126081627 12 340 4.0 0.0 0.00 0.00 0.00 62 1033.9
20220126081525 12 340 1.0 0.0 0.00 0.00 0.00 62 1034.1
20220126081425 12 358 2.0 0.0 0.00 0.00 0.00 62 1033.9
20220126081324 12 358 2.0 0.0 0.00 0.00 0.00 62 1033.9
20220126081223 12 354 1.0 0.0 0.00 0.00 0.00 62 1033.9
20220126081145 12 353 3.0 0.0 0.00 0.00 0.00 62 1034.0
20220126081027 12 344 3.0 0.0 0.00 0.00 0.00 62 1034.1
20220126080926 12 343 4.0 0.0 0.00 0.00 0.00 61 1034.0
20220126080826 12 343 2.0 0.0 0.00 0.00 0.00 61 1034.0
20220126080727 12 343 2.0 0.0 0.00 0.00 0.00 61 1034.0
20220126080627 12 341 3.0 0.0 0.00 0.00 0.00 61 1033.9
20220126080526 12 353 3.0 0.0 0.00 0.00 0.00 61 1034.0
20220126080429 12 349 2.0 0.0 0.00 0.00 0.00 61 1033.9
20220126080329 12 349 2.0 0.0 0.00 0.00 0.00 61 1033.9
20220126080230 12 349 1.0 0.0 0.00 0.00 0.00 61 1033.9
20220126080131 12 348 4.0 0.0 0.00 0.00 0.00 61 1033.9
20220126080029 12 356 4.0 0.0 0.00 0.00 0.00 61 1033.8
20220126075927 12 356 2.0 0.0 0.00 0.00 0.00 61 1033.9
20220126075830 12 356 1.0 0.0 0.00 0.00 0.00 60 1033.9
20220126075733 12 356 1.0 0.0 0.00 0.00 0.00 60 1033.9
20220126075633 12 339 5.0 0.0 0.00 0.00 0.00 60 1033.9
20220126075534 12 338 4.0 0.0 0.00 0.00 0.00 60 1033.9
20220126075435 12 340 2.0 0.0 0.00 0.00 0.00 60 1034.0
20220126075337 12 340 6.0 0.0 0.00 0.00 0.00 60 1034.0
20220126075236 12 343 3.0 0.0 0.00 0.00 0.00 60 1033.9
20220126075137 12 343 2.0 0.0 0.00 0.00 0.00 60 1033.9
20220126075036 12 343 1.0 0.0 0.00 0.00 0.00 60 1033.8
20220126074938 12 343 4.0 0.0 0.00 0.00 0.00 60 1033.9
20220126074835 12 343 3.0 0.0 0.00 0.00 0.00 60 1033.9
20220126074735 12 343 3.0 0.0 0.00 0.00 0.00 60 1033.8
20220126074636 12 343 2.0 0.0 0.00 0.00 0.00 60 1033.8
20220126074525 12 343 4.0 0.0 0.00 0.00 0.00 60 1033.8
20220126074443 12 343 3.0 0.0 0.00 0.00 0.00 60 1033.8
20220126074322 12 344 6.0 0.0 0.00 0.00 0.00 60 1033.9
20220126074227 12 345 3.0 0.0 0.00 0.00 0.00 59 1033.7
20220126074125 12 349 1.0 0.0 0.00 0.00 0.00 59 1033.8
20220126074022 12 349 2.0 0.0 0.00 0.00 0.00 59 1033.9
20220126073923 12 354 0.0 0.0 0.00 0.00 0.00 59 1033.7
20220126073830 12 354 2.0 0.0 0.00 0.00 0.00 59 1033.8
20220126073730 12 354 4.0 0.0 0.00 0.00 0.00 59 1033.8
20220126073628 12 354 2.0 0.0 0.00 0.00 0.00 59 1033.9
20220126073529 12 354 2.0 0.0 0.00 0.00 0.00 59 1033.8
20220126073432 12 354 3.0 0.0 0.00 0.00 0.00 59 1033.8
20220126073332 12 358 1.0 0.0 0.00 0.00 0.00 59 1033.7
20220126073236 12 358 2.0 0.0 0.00 0.00 0.00 59 1033.8
20220126073133 12 358 3.0 0.0 0.00 0.00 0.00 59 1033.8
20220126073032 12 358 2.0 0.0 0.00 0.00 0.00 59 1033.6
20220126072933 12 358 1.0 0.0 0.00 0.00 0.00 59 1033.7
20220126072834 12 358 2.0 0.0 0.00 0.00 0.00 59 1033.8
20220126072733 12 359 5.0 0.0 0.00 0.00 0.00 59 1033.6
20220126072633 12 0 2.0 0.0 0.00 0.00 0.00 59 1033.6
20220126072537 12 0 1.0 0.0 0.00 0.00 0.00 59 1033.6
20220126072436 12 0 1.0 0.0 0.00 0.00 0.00 59 1033.6
20220126072336 12 0 0.0 0.0 0.00 0.00 0.00 59 1033.6
20220126072235 12 0 0.0 0.0 0.00 0.00 0.00 59 1033.6
20220126072134 12 0 2.0 0.0 0.00 0.00 0.00 58 1033.5
20220126072034 13 0 1.0 0.0 0.00 0.00 0.00 59 1033.6
20220126071935 13 0 2.0 0.0 0.00 0.00 0.00 58 1033.6
20220126071833 13 0 2.0 0.0 0.00 0.00 0.00 58 1033.6
20220126071733 13 0 4.0 0.0 0.00 0.00 0.00 59 1033.6
20220126071631 13 0 1.0 0.0 0.00 0.00 0.00 58 1033.5
20220126071529 13 0 3.0 0.0 0.00 0.00 0.00 58 1033.6
20220126071432 13 0 2.0 0.0 0.00 0.00 0.00 58 1033.6
20220126071332 13 0 2.0 0.0 0.00 0.00 0.00 58 1033.4
20220126071235 13 0 3.0 0.0 0.00 0.00 0.00 58 1033.6
20220126071135 13 330 6.0 0.0 0.00 0.00 0.00 58 1033.7
20220126071035 13 348 6.0 0.0 0.00 0.00 0.00 58 1033.5
20220126070937 13 359 5.0 0.0 0.00 0.00 0.00 58 1033.5
20220126070837 13 359 3.0 0.0 0.00 0.00 0.00 58 1033.7
20220126070735 13 353 3.0 0.0 0.00 0.00 0.00 58 1033.5
20220126070639 13 345 3.0 0.0 0.00 0.00 0.00 58 1033.5
20220126070541 13 342 5.0 0.0 0.00 0.00 0.00 58 1033.4
20220126070422 13 334 2.0 0.0 0.00 0.00 0.00 58 1033.4
20220126070324 13 334 1.0 0.0 0.00 0.00 0.00 58 1033.5
20220126070225 13 334 2.0 0.0 0.00 0.00 0.00 58 1033.4
20220126070127 13 339 6.0 0.0 0.00 0.00 0.00 58 1033.5
20220126070031 13 338 3.0 0.0 0.00 0.00 0.00 58 1033.4
20220126065930 13 338 2.0 0.0 0.00 0.00 0.00 58 1033.4
20220126065833 13 337 2.0 0.0 0.00 0.00 0.00 57 1033.5
20220126065734 13 358 3.0 0.0 0.00 0.00 0.00 57 1033.4
20220126065633 13 358 3.0 0.0 0.00 0.00 0.00 57 1033.5
20220126065532 13 358 2.0 0.0 0.00 0.00 0.00 57 1033.4
20220126065431 13 359 4.0 0.0 0.00 0.00 0.00 57 1033.4
20220126065338 13 353 4.0 0.0 0.00 0.00 0.00 57 1033.5
20220126065238 13 353 0.0 0.0 0.00 0.00 0.00 57 1033.6
20220126065140 13 353 1.0 0.0 0.00 0.00 0.00 57 1033.5
20220126065039 13 353 2.0 0.0 0.00 0.00 0.00 57 1033.5
20220126064937 13 354 5.0 0.0 0.00 0.00 0.00 57 1033.4
20220126064837 13 353 4.0 0.0 0.00 0.00 0.00 57 1033.4
20220126064739 13 340 2.0 0.0 0.00 0.00 0.00 57 1033.4
20220126064642 13 345 3.0 0.0 0.00 0.00 0.00 57 1033.4
20220126064540 13 343 2.0 0.0 0.00 0.00 0.00 57 1033.3
20220126064422 13 347 3.0 0.0 0.00 0.00 0.00 57 1033.4
20220126064325 13 339 5.0 0.0 0.00 0.00 0.00 57 1033.4
20220126064227 13 339 2.0 0.0 0.00 0.00 0.00 57 1033.4
20220126064134 13 339 6.0 0.0 0.00 0.00 0.00 57 1033.3
20220126064034 13 353 3.0 0.0 0.00 0.00 0.00 57 1033.4
20220126063935 13 349 2.0 0.0 0.00 0.00 0.00 57 1033.3
20220126063836 13 349 1.0 0.0 0.00 0.00 0.00 57 1033.3
20220126063733 13 349 0.0 0.0 0.00 0.00 0.00 57 1033.4
20220126063635 13 349 3.0 0.0 0.00 0.00 0.00 57 1033.2
20220126063537 13 349 1.0 0.0 0.00 0.00 0.00 57 1033.3
20220126063440 13 353 3.0 0.0 0.00 0.00 0.00 57 1033.4
20220126063337 13 0 3.0 0.0 0.00 0.00 0.00 57 1033.1
20220126063238 13 0 2.0 0.0 0.00 0.00 0.00 57 1033.3
20220126063136 13 3 5.0 0.0 0.00 0.00 0.00 57 1033.3
20220126063035 13 11 1.0 0.0 0.00 0.00 0.00 57 1033.3
20220126062935 13 11 4.0 0.0 0.00 0.00 0.00 57 1033.4
20220126062839 13 12 2.0 0.0 0.00 0.00 0.00 57 1033.3
20220126062737 13 11 5.0 0.0 0.00 0.00 0.00 57 1033.3
20220126062637 13 355 1.0 0.0 0.00 0.00 0.00 57 1033.4
20220126062535 13 345 2.0 0.0 0.00 0.00 0.00 57 1033.5
20220126062437 13 344 2.0 0.0 0.00 0.00 0.00 57 1033.4
20220126062337 13 345 2.0 0.0 0.00 0.00 0.00 57 1033.5
20220126062237 13 358 4.0 0.0 0.00 0.00 0.00 57 1033.4
20220126062141 13 1 2.0 0.0 0.00 0.00 0.00 57 1033.5
20220126062041 14 3 3.0 0.0 0.00 0.00 0.00 57 1033.3
20220126061939 14 3 2.0 0.0 0.00 0.00 0.00 57 1033.3
20220126061840 14 8 1.0 0.0 0.00 0.00 0.00 57 1033.2
20220126061739 14 8 1.0 0.0 0.00 0.00 0.00 57 1033.2
20220126061639 14 8 3.0 0.0 0.00 0.00 0.00 57 1033.5
20220126061541 14 8 2.0 0.0 0.00 0.00 0.00 57 1033.4
20220126061444 14 2 5.0 0.0 0.00 0.00 0.00 57 1033.3
20220126061342 14 348 4.0 0.0 0.00 0.00 0.00 57 1033.4
20220126061242 14 350 7.0 0.0 0.00 0.00 0.00 57 1033.3
20220126061141 14 347 8.0 0.0 0.00 0.00 0.00 57 1033.4
20220126061041 14 0 3.0 0.0 0.00 0.00 0.00 57 1033.4
20220126060941 14 8 3.0 0.0 0.00 0.00 0.00 57 1033.3
20220126060844 14 358 5.0 0.0 0.00 0.00 0.00 57 1033.5
20220126060743 14 4 5.0 0.0 0.00 0.00 0.00 57 1033.4
20220126060622 14 350 2.0 0.0 0.00 0.00 0.00 57 1033.4
20220126060545 14 351 3.0 0.0 0.00 0.00 0.00 57 1033.5
20220126060424 14 334 3.0 0.0 0.00 0.00 0.00 57 1033.5
20220126060325 14 350 3.0 0.0 0.00 0.00 0.00 57 1033.3
20220126060230 14 357 2.0 0.0 0.00 0.00 0.00 57 1033.3
20220126060129 14 357 1.0 0.0 0.00 0.00 0.00 57 1033.3
20220126060059 14 357 1.0 0.0 0.00 0.00 0.00 57 1033.4
20220126055940 14 0 2.0 0.0 0.00 0.00 0.00 57 1033.2
20220126055841 14 0 3.0 0.0 0.00 0.00 0.00 57 1033.4
20220126055743 14 0 4.0 0.0 0.00 0.00 0.00 58 1033.2
20220126055625 14 0 4.0 0.0 0.00 0.00 0.00 58 1033.3
20220126055526 14 355 5.0 0.0 0.00 0.00 0.00 58 1033.2
20220126055426 14 353 5.0 0.0 0.00 0.00 0.00 58 1033.2
20220126055346 14 351 6.0 0.0 0.00 0.00 0.00 58 1033.2
20220126055225 14 347 5.0 0.0 0.00 0.00 0.00 58 1033.2
20220126055125 14 349 5.0 0.0 0.00 0.00 0.00 58 1033.2
20220126055046 14 351 2.0 0.0 0.00 0.00 0.00 58 1033.1
20220126054928 14 348 4.0 0.0 0.00 0.00 0.00 58 1033.2
20220126054828 14 348 3.0 0.0 0.00 0.00 0.00 58 1033.2
20220126054727 14 348 1.0 0.0 0.00 0.00 0.00 58 1033.3
20220126054630 14 348 2.0 0.0 0.00 0.00 0.00 58 1033.3
20220126054532 14 348 2.0 0.0 0.00 0.00 0.00 58 1033.3
20220126054433 14 352 5.0 0.0 0.00 0.00 0.00 58 1033.3
20220126054340 14 8 5.0 0.0 0.00 0.00 0.00 58 1033.1
20220126054240 14 354 2.0 0.0 0.00 0.00 0.00 58 1033.3
20220126054142 14 355 4.0 0.0 0.00 0.00 0.00 59 1033.2
20220126054044 14 0 3.0 0.0 0.00 0.00 0.00 58 1033.2
20220126053923 14 349 0.0 0.0 0.00 0.00 0.00 59 1033.2
20220126053837 14 349 1.0 0.0 0.00 0.00 0.00 59 1033.2
20220126053724 14 357 3.0 0.0 0.00 0.00 0.00 59 1033.2
20220126053644 14 356 3.0 0.0 0.00 0.00 0.00 59 1033.1
20220126053541 14 344 9.0 0.0 0.00 0.00 0.00 59 1033.1
20220126053443 14 353 6.0 0.0 0.00 0.00 0.00 59 1033.1
20220126053342 14 346 5.0 0.0 0.00 0.00 0.00 59 1033.2
20220126053243 14 17 4.0 0.0 0.00 0.00 0.00 59 1033.1
20220126053141 14 347 3.0 0.0 0.00 0.00 0.00 58 1033.1
20220126053026 14 347 2.0 0.0 0.00 0.00 0.00 59 1033.1
20220126052945 14 347 1.0 0.0 0.00 0.00 0.00 58 1033.0
20220126052843 14 355 3.0 0.0 0.00 0.00 0.00 58 1033.2
20220126052740 15 359 5.0 0.0 0.00 0.00 0.00 59 1033.1
20220126052636 15 0 3.0 0.0 0.00 0.00 0.00 58 1033.1
20220126052536 15 0 3.0 0.0 0.00 0.00 0.00 58 1033.1
20220126052435 15 340 4.0 0.0 0.00 0.00 0.00 58 1033.1
20220126052340 15 348 5.0 0.0 0.00 0.00 0.00 58 1033.1
20220126052242 15 334 2.0 0.0 0.00 0.00 0.00 58 1033.1
20220126052138 15 349 4.0 0.0 0.00 0.00 0.00 58 1033.1
20220126052038 15 0 2.0 0.0 0.00 0.00 0.00 58 1032.9
20220126051940 15 359 4.0 0.0 0.00 0.00 0.00 58 1032.9
20220126051840 15 339 3.0 0.0 0.00 0.00 0.00 58 1033.1
20220126051723 15 335 5.0 0.0 0.00 0.00 0.00 58 1033.1
20220126051625 15 3 5.0 0.0 0.00 0.00 0.00 58 1033.1
20220126051524 15 40 3.0 0.0 0.00 0.00 0.00 58 1033.1
20220126051425 15 353 3.0 0.0 0.00 0.00 0.00 58 1033.1
20220126051326 15 354 2.0 0.0 0.00 0.00 0.00 58 1033.1
20220126051229 15 18 5.0 0.0 0.00 0.00 0.00 58 1033.0
20220126051133 15 0 4.0 0.0 0.00 0.00 0.00 58 1033.0
20220126051031 15 1 5.0 0.0 0.00 0.00 0.00 58 1033.0
20220126050930 15 348 2.0 0.0 0.00 0.00 0.00 58 1033.0
20220126050832 15 1 6.0 0.0 0.00 0.00 0.00 58 1033.0
20220126050729 15 353 2.0 0.0 0.00 0.00 0.00 58 1032.9
20220126050631 15 316 3.0 0.0 0.00 0.00 0.00 58 1033.0
20220126050531 15 359 4.0 0.0 0.00 0.00 0.00 58 1033.0
20220126050433 15 344 2.0 0.0 0.00 0.00 0.00 58 1033.0
20220126050334 15 342 3.0 0.0 0.00 0.00 0.00 58 1033.1
20220126050236 15 340 5.0 0.0 0.00 0.00 0.00 58 1033.2
20220126050138 15 349 6.0 0.0 0.00 0.00 0.00 58 1033.1
20220126050039 15 356 4.0 0.0 0.00 0.00 0.00 58 1033.1
20220126045938 15 0 4.0 0.0 0.00 0.00 0.00 58 1033.1
20220126045840 15 357 7.0 0.0 0.00 0.00 0.00 58 1033.1
20220126045741 15 357 7.0 0.0 0.00 0.00 0.00 58 1032.6
20220126045641 15 0 2.0 0.0 0.00 0.00 0.00 58 1033.0
20220126045541 15 333 5.0 0.0 0.00 0.00 0.00 58 1033.0
20220126045441 15 345 3.0 0.0 0.00 0.00 0.00 58 1033.0
20220126045322 15 5 4.0 0.0 0.00 0.00 0.00 59 1032.9
20220126045229 15 353 6.0 0.0 0.00 0.00 0.00 59 1032.9
20220126045127 15 348 4.0 0.0 0.00 0.00 0.00 59 1033.0
20220126045027 15 351 5.0 0.0 0.00 0.00 0.00 59 1033.0
20220126044929 15 357 3.0 0.0 0.00 0.00 0.00 59 1032.8
20220126044830 15 0 2.0 0.0 0.00 0.00 0.00 59 1032.9
20220126044730 15 0 1.0 0.0 0.00 0.00 0.00 59 1032.8
20220126044632 15 356 5.0 0.0 0.00 0.00 0.00 59 1033.0
20220126044534 15 0 5.0 0.0 0.00 0.00 0.00 59 1033.0
20220126044432 15 0 1.0 0.0 0.00 0.00 0.00 59 1032.9
20220126044332 15 0 2.0 0.0 0.00 0.00 0.00 59 1033.0
20220126044231 15 0 5.0 0.0 0.00 0.00 0.00 59 1032.9
20220126044129 15 0 4.0 0.0 0.00 0.00 0.00 59 1032.8
20220126044027 15 0 2.0 0.0 0.00 0.00 0.00 59 1032.8
20220126043932 15 1 3.0 0.0 0.00 0.00 0.00 59 1032.8
20220126043831 15 1 7.0 0.0 0.00 0.00 0.00 59 1032.8
20220126043730 16 1 5.0 0.0 0.00 0.00 0.00 60 1032.5
20220126043629 16 352 4.0 0.0 0.00 0.00 0.00 59 1032.8
20220126043529 16 343 6.0 0.0 0.00 0.00 0.00 60 1032.7
20220126043428 16 6 5.0 0.0 0.00 0.00 0.00 60 1032.8
20220126043329 16 8 4.0 0.0 0.00 0.00 0.00 60 1032.8
20220126043233 16 349 3.0 0.0 0.00 0.00 0.00 60 1032.8
20220126043133 16 358 5.0 0.0 0.00 0.00 0.00 60 1032.8
20220126043033 16 340 4.0 0.0 0.00 0.00 0.00 60 1032.8
20220126042933 16 4 7.0 0.0 0.00 0.00 0.00 60 1032.8
20220126042832 16 0 1.0 0.0 0.00 0.00 0.00 60 1032.8
20220126042732 16 0 1.0 0.0 0.00 0.00 0.00 60 1032.8
20220126042633 16 0 3.0 0.0 0.00 0.00 0.00 60 1032.9
20220126042536 16 1 4.0 0.0 0.00 0.00 0.00 60 1032.9
20220126042432 16 1 3.0 0.0 0.00 0.00 0.00 60 1032.9
20220126042333 16 2 4.0 0.0 0.00 0.00 0.00 60 1032.9
20220126042235 16 346 3.0 0.0 0.00 0.00 0.00 60 1032.8
20220126042130 16 338 3.0 0.0 0.00 0.00 0.00 60 1032.9
20220126042028 16 337 3.0 0.0 0.00 0.00 0.00 60 1032.8
20220126041931 16 337 3.0 0.0 0.00 0.00 0.00 60 1032.8
20220126041830 16 344 3.0 0.0 0.00 0.00 0.00 60 1032.7
20220126041730 16 329 7.0 0.0 0.00 0.00 0.00 60 1032.6
20220126041629 16 347 5.0 0.0 0.00 0.00 0.00 60 1032.8
20220126041530 16 347 3.0 0.0 0.00 0.00 0.00 60 1032.7
20220126041431 16 343 4.0 0.0 0.00 0.00 0.00 60 1032.6
20220126041335 16 344 2.0 0.0 0.00 0.00 0.00 60 1032.7
20220126041234 16 325 3.0 0.0 0.00 0.00 0.00 60 1032.7
20220126041136 16 344 2.0 0.0 0.00 0.00 0.00 60 1032.6
20220126041036 16 336 5.0 0.0 0.00 0.00 0.00 60 1032.6
20220126040934 16 338 3.0 0.0 0.00 0.00 0.00 60 1032.6
20220126040831 16 346 4.0 0.0 0.00 0.00 0.00 60 1032.6
20220126040728 16 347 5.0 0.0 0.00 0.00 0.00 60 1032.7
20220126040633 16 348 2.0 0.0 0.00 0.00 0.00 60 1032.7
20220126040531 16 355 4.0 0.0 0.00 0.00 0.00 60 1032.6
20220126040431 16 349 2.0 0.0 0.00 0.00 0.00 60 1032.7
20220126040334 16 357 5.0 0.0 0.00 0.00 0.00 60 1032.8
20220126040235 16 341 2.0 0.0 0.00 0.00 0.00 60 1032.5
20220126040134 16 331 6.0 0.0 0.00 0.00 0.00 60 1032.6
20220126040038 16 345 9.0 0.0 0.00 0.00 0.00 60 1032.6
20220126035938 16 356 8.0 0.0 0.00 0.00 0.00 60 1032.7
20220126035837 16 358 4.0 0.0 0.00 0.00 0.00 60 1032.7
20220126035740 16 332 4.0 0.0 0.00 0.00 0.00 60 1032.5
20220126035639 16 330 3.0 0.0 0.00 0.00 0.00 60 1032.6
20220126035531 17 356 3.0 0.0 0.00 0.00 0.00 60 1032.6
20220126035435 17 339 5.0 0.0 0.00 0.00 0.00 60 1032.6
20220126035339 17 354 4.0 0.0 0.00 0.00 0.00 60 1032.5
20220126035238 17 350 8.0 0.0 0.00 0.00 0.00 60 1032.5
20220126035140 17 346 3.0 0.0 0.00 0.00 0.00 60 1032.2
20220126035039 17 345 3.0 0.0 0.00 0.00 0.00 60 1032.5
20220126034938 17 345 1.0 0.0 0.00 0.00 0.00 60 1032.5
20220126034839 17 345 4.0 0.0 0.00 0.00 0.00 60 1032.5
20220126034741 17 350 6.0 0.0 0.00 0.00 0.00 60 1032.5
20220126034640 17 345 5.0 0.0 0.00 0.00 0.00 60 1032.6
20220126034541 17 343 3.0 0.0 0.00 0.00 0.00 60 1032.4
20220126034441 17 343 4.0 0.0 0.00 0.00 0.00 60 1032.6
20220126034339 17 346 4.0 0.0 0.00 0.00 0.00 60 1032.5
20220126034240 17 345 6.0 0.0 0.00 0.00 0.00 60 1032.5
20220126034139 17 0 2.0 0.0 0.00 0.00 0.00 60 1032.6
20220126034042 17 0 1.0 0.0 0.00 0.00 0.00 60 1032.4
20220126033943 17 0 2.0 0.0 0.00 0.00 0.00 59 1032.5
20220126033844 17 358 4.0 0.0 0.00 0.00 0.00 60 1032.4
20220126033742 17 358 3.0 0.0 0.00 0.00 0.00 59 1032.5
20220126033643 17 358 3.0 0.0 0.00 0.00 0.00 59 1032.5
20220126033543 17 358 1.0 0.0 0.00 0.00 0.00 59 1032.4
20220126033425 17 358 3.0 0.0 0.00 0.00 0.00 59 1032.4
20220126033326 17 355 5.0 0.0 0.00 0.00 0.00 59 1032.3
20220126033227 17 344 7.0 0.0 0.00 0.00 0.00 59 1032.3
20220126033125 17 0 5.0 0.0 0.00 0.00 0.00 59 1032.4
20220126033024 17 333 4.0 0.0 0.00 0.00 0.00 60 1032.3
20220126032926 17 355 6.0 0.0 0.00 0.00 0.00 59 1032.3
20220126032828 17 357 1.0 0.0 0.00 0.00 0.00 59 1032.3
20220126032728 17 357 3.0 0.0 0.00 0.00 0.00 59 1032.3
20220126032628 17 357 2.0 0.0 0.00 0.00 0.00 59 1032.3
20220126032528 17 0 3.0 0.0 0.00 0.00 0.00 59 1032.2
20220126032429 17 343 4.0 0.0 0.00 0.00 0.00 59 1032.3
20220126032329 17 0 2.0 0.0 0.00 0.00 0.00 59 1032.2
20220126032229 17 0 3.0 0.0 0.00 0.00 0.00 59 1032.3
20220126032133 17 0 5.0 0.0 0.00 0.00 0.00 59 1032.3
20220126032033 17 0 5.0 0.0 0.00 0.00 0.00 59 1032.2
20220126031931 17 344 2.0 0.0 0.00 0.00 0.00 59 1032.2
20220126031829 17 342 2.0 0.0 0.00 0.00 0.00 59 1032.1
20220126031728 17 331 5.0 0.0 0.00 0.00 0.00 59 1032.3
20220126031628 17 351 3.0 0.0 0.00 0.00 0.00 59 1032.1
20220126031534 17 347 3.0 0.0 0.00 0.00 0.00 59 1031.9
20220126031433 17 355 4.0 0.0 0.00 0.00 0.00 59 1032.2
20220126031332 17 336 7.0 0.0 0.00 0.00 0.00 59 1031.9
20220126031232 17 351 3.0 0.0 0.00 0.00 0.00 59 1032.0
20220126031129 17 353 3.0 0.0 0.00 0.00 0.00 59 1032.0
20220126031029 17 353 2.0 0.0 0.00 0.00 0.00 59 1032.0
20220126030928 17 353 5.0 0.0 0.00 0.00 0.00 59 1031.9
20220126030831 17 351 3.0 0.0 0.00 0.00 0.00 59 1032.1
20220126030732 17 338 6.0 0.0 0.00 0.00 0.00 59 1032.1
20220126030630 17 342 3.0 0.0 0.00 0.00 0.00 59 1031.8
20220126030528 17 9 4.0 0.0 0.00 0.00 0.00 59 1031.8
20220126030429 18 350 8.0 0.0 0.00 0.00 0.00 59 1031.8
20220126030329 18 359 3.0 0.0 0.00 0.00 0.00 59 1031.7
20220126030232 18 337 8.0 0.0 0.00 0.00 0.00 59 1031.9
20220126030132 18 330 10.0 0.0 0.00 0.00 0.00 59 1031.7
20220126030032 18 342 5.0 0.0 0.00 0.00 0.00 59 1031.9
20220126025929 18 0 4.0 0.0 0.00 0.00 0.00 59 1031.9
20220126025830 18 1 4.0 0.0 0.00 0.00 0.00 59 1031.9
20220126025728 18 5 2.0 0.0 0.00 0.00 0.00 59 1031.9
20220126025629 18 357 5.0 0.0 0.00 0.00 0.00 59 1032.0
20220126025532 18 340 1.0 0.0 0.00 0.00 0.00 59 1032.0
20220126025433 18 338 10.0 0.0 0.00 0.00 0.00 59 1031.7
20220126025334 18 354 6.0 0.0 0.00 0.00 0.00 59 1031.8
20220126025234 18 343 8.0 0.0 0.00 0.00 0.00 59 1031.9
20220126025133 18 355 3.0 0.0 0.00 0.00 0.00 59 1031.9
20220126025033 18 342 4.0 0.0 0.00 0.00 0.00 59 1031.8
20220126024937 18 341 3.0 0.0 0.00 0.00 0.00 59 1031.9
20220126024837 18 341 2.0 0.0 0.00 0.00 0.00 59 1031.9
20220126024737 18 341 4.0 0.0 0.00 0.00 0.00 59 1031.9
20220126024637 18 343 3.0 0.0 0.00 0.00 0.00 59 1031.8
20220126024537 18 347 3.0 0.0 0.00 0.00 0.00 59 1031.7
20220126024435 18 0 1.0 0.0 0.00 0.00 0.00 59 1032.0
20220126024338 18 0 4.0 0.0 0.00 0.00 0.00 59 1031.9
20220126024241 18 0 3.0 0.0 0.00 0.00 0.00 59 1031.8
20220126024138 18 352 3.0 0.0 0.00 0.00 0.00 59 1031.9
20220126024039 18 353 3.0 0.0 0.00 0.00 0.00 59 1031.9
20220126023938 18 342 3.0 0.0 0.00 0.00 0.00 59 1031.9
20220126023838 18 344 2.0 0.0 0.00 0.00 0.00 59 1031.9
20220126023740 18 342 3.0 0.0 0.00 0.00 0.00 59 1031.9
20220126023645 18 342 2.0 0.0 0.00 0.00 0.00 59 1031.9
20220126023523 18 343 5.0 0.0 0.00 0.00 0.00 59 1031.8
20220126023424 18 350 4.0 0.0 0.00 0.00 0.00 59 1031.9
20220126023345 18 356 3.0 0.0 0.00 0.00 0.00 59 1031.8
20220126023223 18 351 2.0 0.0 0.00 0.00 0.00 59 1031.8
20220126023125 18 5 8.0 0.0 0.00 0.00 0.00 59 1031.6
20220126023029 18 354 2.0 0.0 0.00 0.00 0.00 59 1031.8
20220126022928 18 7 4.0 0.0 0.00 0.00 0.00 59 1031.6
20220126022827 18 331 8.0 0.0 0.00 0.00 0.00 59 1031.8
20220126022729 18 352 9.0 0.0 0.00 0.00 0.00 59 1031.7
20220126022626 18 343 9.0 0.0 0.00 0.00 0.00 59 1031.9
20220126022524 18 344 3.0 0.0 0.00 0.00 0.00 59 1031.6
20220126022425 18 14 3.0 0.0 0.00 0.00 0.00 59 1031.7
20220126022328 18 344 6.0 0.0 0.00 0.00 0.00 59 1031.6
20220126022226 18 345 2.0 0.0 0.00 0.00 0.00 59 1031.7
20220126022126 19 338 5.0 0.0 0.00 0.00 0.00 59 1031.7
20220126022028 18 18 2.0 0.0 0.00 0.00 0.00 59 1031.8
20220126021925 19 24 7.0 0.0 0.00 0.00 0.00 59 1031.7
20220126021826 19 30 6.0 0.0 0.00 0.00 0.00 59 1031.8
20220126021728 19 344 3.0 0.0 0.00 0.00 0.00 59 1031.6
20220126021625 19 342 4.0 0.0 0.00 0.00 0.00 59 1031.6
20220126021528 19 346 5.0 0.0 0.00 0.00 0.00 59 1031.7
20220126021426 19 347 0.0 0.0 0.00 0.00 0.00 58 1031.7
20220126021325 19 351 9.0 0.0 0.00 0.00 0.00 58 1031.6
20220126021246 19 5 3.0 0.0 0.00 0.00 0.00 58 1031.5
20220126021124 19 340 9.0 0.0 0.00 0.00 0.00 58 1031.7
20220126021030 19 7 6.0 0.0 0.00 0.00 0.00 58 1031.6
20220126020929 19 358 3.0 0.0 0.00 0.00 0.00 58 1031.5
20220126020830 19 348 3.0 0.0 0.00 0.00 0.00 58 1031.6
20220126020729 19 3 3.0 0.0 0.00 0.00 0.00 58 1031.1
20220126020626 19 3 1.0 0.0 0.00 0.00 0.00 58 1031.4
20220126020525 19 0 4.0 0.0 0.00 0.00 0.00 58 1031.3
20220126020431 19 358 4.0 0.0 0.00 0.00 0.00 58 1031.4
20220126020329 19 349 2.0 0.0 0.00 0.00 0.00 58 1031.4
20220126020228 19 344 7.0 0.0 0.00 0.00 0.00 58 1031.5
20220126020128 19 328 5.0 0.0 0.00 0.00 0.00 58 1031.3
20220126020028 19 358 7.0 0.0 0.00 0.00 0.00 58 1031.4
20220126015928 19 0 7.0 0.0 0.00 0.00 0.00 58 1031.4
20220126015826 19 11 2.0 0.0 0.00 0.00 0.00 58 1031.4
20220126015728 19 11 6.0 0.0 0.00 0.00 0.00 57 1031.4
20220126015630 19 348 3.0 0.0 0.00 0.00 0.00 58 1031.4
20220126015529 19 347 3.0 0.0 0.00 0.00 0.00 58 1031.5
20220126015429 19 335 4.0 0.0 0.00 0.00 0.00 58 1031.4
20220126015330 19 334 4.0 0.0 0.00 0.00 0.00 57 1031.4
20220126015228 19 356 4.0 0.0 0.00 0.00 0.00 57 1031.4
20220126015131 19 358 6.0 0.0 0.00 0.00 0.00 57 1031.5
20220126015029 19 0 5.0 0.0 0.00 0.00 0.00 57 1031.3
20220126014928 19 351 2.0 0.0 0.00 0.00 0.00 57 1031.0
20220126014828 19 345 3.0 0.0 0.00 0.00 0.00 57 1031.4
20220126014730 19 346 3.0 0.0 0.00 0.00 0.00 57 1031.4
20220126014628 19 348 4.0 0.0 0.00 0.00 0.00 57 1031.2
20220126014527 19 338 7.0 0.0 0.00 0.00 0.00 57 1031.3
20220126014431 19 345 6.0 0.0 0.00 0.00 0.00 57 1031.3
20220126014330 19 345 7.0 0.0 0.00 0.00 0.00 57 1031.3
20220126014227 19 0 3.0 0.0 0.00 0.00 0.00 57 1031.1
20220126014126 19 354 8.0 0.0 0.00 0.00 0.00 57 1031.1
20220126014026 19 357 3.0 0.0 0.00 0.00 0.00 57 1031.1
20220126013926 19 342 3.0 0.0 0.00 0.00 0.00 57 1031.0
20220126013830 19 342 3.0 0.0 0.00 0.00 0.00 57 1031.1
20220126013729 19 342 0.0 0.0 0.00 0.00 0.00 57 1031.0
20220126013629 19 342 1.0 0.0 0.00 0.00 0.00 57 1031.0
20220126013531 19 342 3.0 0.0 0.00 0.00 0.00 57 1031.0
20220126013428 19 342 2.0 0.0 0.00 0.00 0.00 57 1031.0
20220126013327 19 342 3.0 0.0 0.00 0.00 0.00 56 1030.9
20220126013228 19 342 4.0 0.0 0.00 0.00 0.00 57 1030.8
20220126013133 19 342 3.0 0.0 0.00 0.00 0.00 57 1030.8
20220126013032 19 342 4.0 0.0 0.00 0.00 0.00 57 1030.7
20220126012932 19 344 4.0 0.0 0.00 0.00 0.00 56 1030.9
20220126012831 19 356 3.0 0.0 0.00 0.00 0.00 57 1031.0
20220126012733 19 13 6.0 0.0 0.00 0.00 0.00 56 1030.8
20220126012635 19 347 6.0 0.0 0.00 0.00 0.00 57 1030.4
20220126012537 19 354 5.0 0.0 0.00 0.00 0.00 57 1030.6
20220126012436 19 347 4.0 0.0 0.00 0.00 0.00 56 1030.7
20220126012335 19 351 3.0 0.0 0.00 0.00 0.00 57 1030.7
20220126012234 19 18 5.0 0.0 0.00 0.00 0.00 56 1030.7
20220126012133 19 355 6.0 0.0 0.00 0.00 0.00 56 1030.4
20220126012033 19 0 4.0 0.0 0.00 0.00 0.00 57 1030.6
20220126011930 19 335 10.0 0.0 0.00 0.00 0.00 57 1030.4
20220126011831 19 325 7.0 0.0 0.00 0.00 0.00 57 1030.6
20220126011731 19 353 5.0 0.0 0.00 0.00 0.00 57 1030.3
20220126011628 19 13 5.0 0.0 0.00 0.00 0.00 57 1030.5
20220126011526 20 357 4.0 0.0 0.00 0.00 0.00 57 1030.4
20220126011427 20 332 3.0 0.0 0.00 0.00 0.00 57 1030.5
20220126011326 20 0 3.0 0.0 0.00 0.00 0.00 57 1030.5
20220126011233 20 0 1.0 0.0 0.00 0.00 0.00 57 1030.4
20220126011130 20 0 4.0 0.0 0.00 0.00 0.00 57 1030.5
20220126011029 20 0 1.0 0.0 0.00 0.00 0.00 57 1030.6
20220126010929 20 0 4.0 0.0 0.00 0.00 0.00 57 1030.5
20220126010827 20 0 2.0 0.0 0.00 0.00 0.00 57 1030.2
20220126010728 20 0 1.0 0.0 0.00 0.00 0.00 57 1030.5
20220126010629 20 0 3.0 0.0 0.00 0.00 0.00 57 1030.6
20220126010534 20 0 2.0 0.0 0.00 0.00 0.00 57 1030.5
20220126010434 20 0 4.0 0.0 0.00 0.00 0.00 57 1030.5
20220126010334 20 351 4.0 0.0 0.00 0.00 0.00 57 1030.5
20220126010234 20 347 3.0 0.0 0.00 0.00 0.00 57 1030.4
20220126010135 20 347 3.0 0.0 0.00 0.00 0.00 57 1030.6
20220126010035 20 0 2.0 0.0 0.00 0.00 0.00 57 1030.4
20220126005939 20 0 2.0 0.0 0.00 0.00 0.00 57 1030.4
20220126005838 20 0 2.0 0.0 0.00 0.00 0.00 57 1030.4
20220126005739 20 0 0.0 0.0 0.00 0.00 0.00 57 1030.4
20220126005643 20 359 4.0 0.0 0.00 0.00 0.00 57 1030.2
20220126005541 20 0 3.0 0.0 0.00 0.00 0.00 57 1030.3
20220126005440 20 0 5.0 0.0 0.00 0.00 0.00 57 1030.3
20220126005339 20 0 4.0 0.0 0.00 0.00 0.00 57 1030.4
20220126005244 20 358 5.0 0.0 0.00 0.00 0.00 57 1030.3
20220126005123 20 336 4.0 0.0 0.00 0.00 0.00 56 1030.4
20220126005043 20 338 6.0 0.0 0.00 0.00 0.00 57 1030.3
20220126004944 20 359 3.0 0.0 0.00 0.00 0.00 57 1030.2
20220126004842 20 349 5.0 0.0 0.00 0.00 0.00 57 1030.3
20220126004743 20 349 3.0 0.0 0.00 0.00 0.00 57 1030.3
20220126004627 20 349 4.0 0.0 0.00 0.00 0.00 56 1030.3
20220126004528 20 0 3.0 0.0 0.00 0.00 0.00 56 1030.2
20220126004429 20 0 3.0 0.0 0.00 0.00 0.00 56 1030.3
20220126004330 20 0 2.0 0.0 0.00 0.00 0.00 57 1030.3
20220126004232 20 0 3.0 0.0 0.00 0.00 0.00 56 1030.3
20220126004132 21 0 3.0 0.0 0.00 0.00 0.00 56 1030.3
20220126004033 21 353 0.0 0.0 0.00 0.00 0.00 56 1030.3
20220126003933 21 352 2.0 0.0 0.00 0.00 0.00 56 1030.3
20220126003832 21 350 3.0 0.0 0.00 0.00 0.00 56 1030.3
20220126003730 21 357 5.0 0.0 0.00 0.00 0.00 57 1030.2
20220126003630 21 0 2.0 0.0 0.00 0.00 0.00 56 1030.1
20220126003528 21 359 3.0 0.0 0.00 0.00 0.00 56 1030.1
20220126003430 21 333 6.0 0.0 0.00 0.00 0.00 56 1030.2
20220126003335 21 336 4.0 0.0 0.00 0.00 0.00 56 1030.1
20220126003233 21 336 2.0 0.0 0.00 0.00 0.00 56 1030.2
20220126003131 21 341 4.0 0.0 0.00 0.00 0.00 56 1030.3
20220126003029 21 347 2.0 0.0 0.00 0.00 0.00 56 1030.2
20220126002929 21 346 6.0 0.0 0.00 0.00 0.00 56 1030.2
20220126002828 21 345 3.0 0.0 0.00 0.00 0.00 55 1030.0
20220126002734 21 346 8.0 0.0 0.00 0.00 0.00 56 1030.1
20220126002633 21 338 3.0 0.0 0.00 0.00 0.00 55 1030.0
20220126002532 21 339 3.0 0.0 0.00 0.00 0.00 55 1030.0
20220126002432 21 316 2.0 0.0 0.00 0.00 0.00 55 1030.0
20220126002330 21 313 2.0 0.0 0.00 0.00 0.00 55 1029.9
20220126002230 21 311 5.0 0.0 0.00 0.00 0.00 55 1029.9
20220126002132 21 310 3.0 0.0 0.00 0.00 0.00 55 1030.0
20220126002035 21 344 6.0 0.0 0.00 0.00 0.00 55 1030.0
20220126001934 21 337 5.0 0.0 0.00 0.00 0.00 55 1029.8
20220126001834 21 339 11.0 0.0 0.00 0.00 0.00 55 1029.9
20220126001731 21 346 9.0 0.0 0.00 0.00 0.00 54 1029.8
20220126001629 21 345 4.0 0.0 0.00 0.00 0.00 54 1029.9
20220126001529 21 347 1.0 0.0 0.00 0.00 0.00 54 1029.8
20220126001432 21 347 5.0 0.0 0.00 0.00 0.00 54 1029.8
20220126001333 21 333 6.0 0.0 0.00 0.00 0.00 54 1029.9
20220126001233 21 343 1.0 0.0 0.00 0.00 0.00 54 1029.8
20220126001132 21 344 4.0 0.0 0.00 0.00 0.00 54 1029.9
20220126001033 21 350 3.0 0.0 0.00 0.00 0.00 53 1029.9
20220126000931 21 350 2.0 0.0 0.00 0.00 0.00 53 1030.0
20220126000831 21 352 3.0 0.0 0.00 0.00 0.00 53 1029.8
20220126000735 22 352 2.0 0.0 0.00 0.00 0.00 53 1030.0
20220126000639 22 344 6.0 0.0 0.00 0.00 0.00 53 1029.7
20220126000539 22 336 3.0 0.0 0.00 0.00 0.00 53 1029.7
20220126000437 22 336 3.0 0.0 0.00 0.00 0.00 53 1029.7
20220126000337 22 336 3.0 0.0 0.00 0.00 0.00 53 1029.7
20220126000238 22 336 3.0 0.0 0.00 0.00 0.00 53 1029.6
20220126000143 22 336 3.0 0.0 0.00 0.00 0.00 52 1029.6
20220126000044 22 336 0.0 0.0 0.00 0.00 0.00 52 1029.5
20220125235942 22 336 0.0 0.0 0.00 0.00 0.00 52 1029.6
20220125235842 22 336 1.0 0.0 0.00 0.00 0.00 52 1029.5
20220125235743 22 336 0.0 0.0 0.00 0.00 0.00 52 1029.6
20220125235644 22 336 0.0 0.0 0.00 0.00 0.00 52 1029.6
20220125235526 22 336 1.0 0.0 0.00 0.00 0.00 51 1029.5
20220125235444 22 336 1.0 0.0 0.00 0.00 0.00 51 1029.6
20220125235344 22 336 4.0 0.0 0.00 0.00 0.00 51 1029.5
20220125235224 22 337 3.0 0.0 0.00 0.00 0.00 51 1029.6
20220125235126 22 337 3.0 0.0 0.00 0.00 0.00 50 1029.6
20220125235045 22 337 4.0 0.0 0.00 0.00 0.00 50 1029.6
20220125234943 22 337 3.0 0.0 0.00 0.00 0.00 50 1029.6
20220125234825 22 344 4.0 0.0 0.00 0.00 0.00 50 1029.6
20220125234745 22 344 4.0 0.0 0.00 0.00 0.00 50 1029.6
20220125234645 22 344 2.0 0.0 0.00 0.00 0.00 50 1029.6
20220125234542 22 344 4.0 0.0 0.00 0.00 0.00 50 1029.6
20220125234443 22 344 3.0 0.0 0.00 0.00 0.00 50 1029.6
20220125234342 22 344 2.0 0.0 0.00 0.00 0.00 50 1029.6
20220125234241 22 344 0.0 0.0 0.00 0.00 0.00 49 1029.5
20220125234144 22 344 1.0 0.0 0.00 0.00 0.00 49 1029.5
20220125234025 22 344 2.0 0.0 0.00 0.00 0.00 49 1029.4
20220125233943 22 344 4.0 0.0 0.00 0.00 0.00 49 1029.5
20220125233843 22 339 5.0 0.0 0.00 0.00 0.00 49 1029.5
20220125233741 22 339 6.0 0.0 0.00 0.00 0.00 49 1029.5
20220125233640 22 333 5.0 0.0 0.00 0.00 0.00 49 1029.4
20220125233526 22 332 4.0 0.0 0.00 0.00 0.00 49 1029.4
20220125233428 22 332 3.0 0.0 0.00 0.00 0.00 49 1029.4
20220125233326 22 352 5.0 0.0 0.00 0.00 0.00 49 1029.3
20220125233225 22 338 5.0 0.0 0.00 0.00 0.00 49 1029.4
20220125233127 22 342 7.0 0.0 0.00 0.00 0.00 49 1029.4
20220125233025 22 341 3.0 0.0 0.00 0.00 0.00 49 1029.3
20220125232928 22 343 5.0 0.0 0.00 0.00 0.00 49 1029.3
20220125232829 22 344 9.0 0.0 0.00 0.00 0.00 48 1029.2
20220125232729 22 320 4.0 0.0 0.00 0.00 0.00 48 1029.2
20220125232628 22 334 4.0 0.0 0.00 0.00 0.00 49 1029.3
20220125232527 22 335 3.0 0.0 0.00 0.00 0.00 48 1029.3
20220125232428 22 326 5.0 0.0 0.00 0.00 0.00 48 1029.2
20220125232326 22 338 2.0 0.0 0.00 0.00 0.00 48 1029.2
20220125232231 22 336 4.0 0.0 0.00 0.00 0.00 48 1029.2
20220125232129 22 340 6.0 0.0 0.00 0.00 0.00 48 1029.2
20220125232027 22 345 4.0 0.0 0.00 0.00 0.00 49 1029.2
20220125231926 22 0 4.0 0.0 0.00 0.00 0.00 48 1029.2
20220125231844 22 0 2.0 0.0 0.00 0.00 0.00 48 1029.1
20220125231744 22 0 1.0 0.0 0.00 0.00 0.00 48 1029.2
20220125231628 22 0 1.0 0.0 0.00 0.00 0.00 48 1029.2
20220125231527 23 0 0.0 0.0 0.00 0.00 0.00 48 1029.2
20220125231427 23 0 1.0 0.0 0.00 0.00 0.00 48 1029.2
20220125231326 23 1 3.0 0.0 0.00 0.00 0.00 48 1029.2
20220125231227 23 359 5.0 0.0 0.00 0.00 0.00 48 1029.2
20220125231125 23 344 6.0 0.0 0.00 0.00 0.00 48 1029.2
20220125231046 23 338 5.0 0.0 0.00 0.00 0.00 48 1029.1
20220125230928 23 320 6.0 0.0 0.00 0.00 0.00 48 1029.1
20220125230826 23 352 6.0 0.0 0.00 0.00 0.00 48 1029.2
20220125230727 23 343 6.0 0.0 0.00 0.00 0.00 47 1029.1
20220125230627 23 346 2.0 0.0 0.00 0.00 0.00 47 1029.2
20220125230526 23 348 3.0 0.0 0.00 0.00 0.00 47 1029.2
20220125230425 23 328 4.0 0.0 0.00 0.00 0.00 47 1029.2
20220125230330 23 344 9.0 0.0 0.00 0.00 0.00 47 1029.1
20220125230228 23 340 8.0 0.0 0.00 0.00 0.00 47 1029.1
20220125230128 23 332 2.0 0.0 0.00 0.00 0.00 47 1029.1
20220125230029 23 332 4.0 0.0 0.00 0.00 0.00 47 1029.2
20220125225929 23 333 5.0 0.0 0.00 0.00 0.00 47 1029.0
20220125225847 23 0 2.0 0.0 0.00 0.00 0.00 47 1029.0
20220125225725 23 0 2.0 0.0 0.00 0.00 0.00 47 1028.9
20220125225629 23 0 4.0 0.0 0.00 0.00 0.00 47 1028.9
20220125225530 23 348 6.0 0.0 0.00 0.00 0.00 47 1028.9
20220125225429 23 350 7.0 0.0 0.00 0.00 0.00 47 1028.9
20220125225328 23 347 2.0 0.0 0.00 0.00 0.00 47 1028.8
20220125225228 23 359 2.0 0.0 0.00 0.00 0.00 47 1028.9
20220125225127 23 345 5.0 0.0 0.00 0.00 0.00 47 1028.9
20220125225029 23 354 4.0 0.0 0.00 0.00 0.00 47 1028.8
20220125224930 23 354 3.0 0.0 0.00 0.00 0.00 47 1028.8
20220125224831 23 0 2.0 0.0 0.00 0.00 0.00 47 1028.3
20220125224731 23 348 4.0 0.0 0.00 0.00 0.00 47 1028.8
20220125224630 23 342 3.0 0.0 0.00 0.00 0.00 47 1028.8
20220125224530 23 338 11.0 0.0 0.00 0.00 0.00 47 1028.6
20220125224430 23 350 7.0 0.0 0.00 0.00 0.00 47 1028.8
20220125224332 23 337 7.0 0.0 0.00 0.00 0.00 47 1028.7
20220125224231 23 345 7.0 0.0 0.00 0.00 0.00 47 1028.8
20220125224131 23 345 4.0 0.0 0.00 0.00 0.00 47 1028.6
20220125224030 23 0 3.0 0.0 0.00 0.00 0.00 47 1028.8
20220125223930 23 347 10.0 0.0 0.00 0.00 0.00 47 1028.8
20220125223827 23 0 2.0 0.0 0.00 0.00 0.00 47 1028.7
20220125223728 23 1 3.0 0.0 0.00 0.00 0.00 46 1028.8
20220125223628 23 355 6.0 0.0 0.00 0.00 0.00 47 1028.8
20220125223527 23 340 3.0 0.0 0.00 0.00 0.00 47 1028.7
20220125223427 23 340 2.0 0.0 0.00 0.00 0.00 47 1028.6
20220125223328 23 346 3.0 0.0 0.00 0.00 0.00 47 1028.6
20220125223224 23 352 1.0 0.0 0.00 0.00 0.00 47 1028.6
20220125223146 23 352 2.0 0.0 0.00 0.00 0.00 47 1028.5
20220125223028 23 347 4.0 0.0 0.00 0.00 0.00 47 1028.6
20220125222926 23 321 6.0 0.0 0.00 0.00 0.00 47 1028.5
20220125222824 23 338 3.0 0.0 0.00 0.00 0.00 46 1028.4
20220125222726 23 313 8.0 0.0 0.00 0.00 0.00 46 1028.6
20220125222644 23 339 8.0 0.0 0.00 0.00 0.00 47 1028.4
20220125222543 23 341 7.0 0.0 0.00 0.00 0.00 47 1028.2
20220125222425 23 0 4.0 0.0 0.00 0.00 0.00 47 1028.3
20220125222345 23 18 4.0 0.0 0.00 0.00 0.00 46 1028.4
20220125222244 24 335 6.0 0.0 0.00 0.00 0.00 46 1028.3
20220125222138 24 1 4.0 0.0 0.00 0.00 0.00 47 1028.4
20220125222036 24 352 4.0 0.0 0.00 0.00 0.00 47 1028.3
20220125221936 24 352 2.0 0.0 0.00 0.00 0.00 47 1028.3
20220125221835 24 352 4.0 0.0 0.00 0.00 0.00 46 1028.4
20220125221739 24 352 0.0 0.0 0.00 0.00 0.00 47 1028.3
20220125221640 24 352 4.0 0.0 0.00 0.00 0.00 47 1028.3
20220125221537 24 355 0.0 0.0 0.00 0.00 0.00 46 1028.3
20220125221438 24 322 6.0 0.0 0.00 0.00 0.00 47 1028.3
20220125221338 24 345 4.0 0.0 0.00 0.00 0.00 47 1028.2
20220125221235 24 348 7.0 0.0 0.00 0.00 0.00 47 1028.2
20220125221135 23 318 3.0 0.0 0.00 0.00 0.00 46 1028.3
20220125221039 23 318 2.0 0.0 0.00 0.00 0.00 46 1028.3
20220125220938 23 317 2.0 0.0 0.00 0.00 0.00 46 1028.4
20220125220837 24 342 9.0 0.0 0.00 0.00 0.00 46 1028.2
20220125220739 24 344 4.0 0.0 0.00 0.00 0.00 46 1028.1
20220125220636 24 354 6.0 0.0 0.00 0.00 0.00 46 1028.3
20220125220538 24 342 11.0 0.0 0.00 0.00 0.00 46 1028.3
20220125220440 24 347 5.0 0.0 0.00 0.00 0.00 46 1028.2
20220125220339 24 5 2.0 0.0 0.00 0.00 0.00 46 1028.2
20220125220238 24 5 5.0 0.0 0.00 0.00 0.00 46 1028.1
20220125220137 24 355 7.0 0.0 0.00 0.00 0.00 46 1028.1
20220125220036 24 0 2.0 0.0 0.00 0.00 0.00 46 1028.2
20220125215934 24 330 4.0 0.0 0.00 0.00 0.00 46 1028.1
20220125215832 24 359 3.0 0.0 0.00 0.00 0.00 46 1028.1
20220125215735 24 2 4.0 0.0 0.00 0.00 0.00 46 1028.2
20220125215637 24 4 4.0 0.0 0.00 0.00 0.00 46 1028.2
20220125215539 24 352 4.0 0.0 0.00 0.00 0.00 46 1028.2
20220125215437 24 353 5.0 0.0 0.00 0.00 0.00 46 1028.3
20220125215339 24 353 4.0 0.0 0.00 0.00 0.00 46 1028.2
20220125215239 24 4 3.0 0.0 0.00 0.00 0.00 46 1028.2
20220125215142 24 4 1.0 0.0 0.00 0.00 0.00 46 1028.2
20220125215042 24 2 6.0 0.0 0.00 0.00 0.00 46 1028.2
20220125214942 23 3 4.0 0.0 0.00 0.00 0.00 46 1028.3
20220125214838 23 354 6.0 0.0 0.00 0.00 0.00 46 1028.2
20220125214738 23 358 3.0 0.0 0.00 0.00 0.00 46 1028.1
20220125214640 23 345 5.0 0.0 0.00 0.00 0.00 46 1028.1
20220125214525 23 326 4.0 0.0 0.00 0.00 0.00 46 1028.1
20220125214425 23 334 6.0 0.0 0.00 0.00 0.00 46 1028.1
20220125214346 23 334 7.0 0.0 0.00 0.00 0.00 46 1028.1
20220125214244 23 332 2.0 0.0 0.00 0.00 0.00 46 1028.1
20220125214142 23 337 4.0 0.0 0.00 0.00 0.00 46 1028.0
20220125214044 23 342 3.0 0.0 0.00 0.00 0.00 46 1028.1
20220125213943 23 342 3.0 0.0 0.00 0.00 0.00 46 1028.0
20220125213827 23 329 11.0 0.0 0.00 0.00 0.00 46 1028.1
20220125213744 23 359 5.0 0.0 0.00 0.00 0.00 46 1028.1
20220125213645 23 327 6.0 0.0 0.00 0.00 0.00 46 1027.9
20220125213544 23 359 3.0 0.0 0.00 0.00 0.00 46 1027.9
20220125213443 23 337 13.0 0.0 0.00 0.00 0.00 46 1027.9
20220125213344 23 359 2.0 0.0 0.00 0.00 0.00 46 1027.9
20220125213227 23 10 4.0 0.0 0.00 0.00 0.00 46 1027.8
20220125213127 23 9 5.0 0.0 0.00 0.00 0.00 46 1027.9
20220125213028 23 353 5.0 0.0 0.00 0.00 0.00 46 1027.8
20220125212926 23 350 8.0 0.0 0.00 0.00 0.00 46 1027.7
20220125212826 24 344 9.0 0.0 0.00 0.00 0.00 46 1027.8
20220125212745 24 340 4.0 0.0 0.00 0.00 0.00 46 1027.8
20220125212643 24 351 6.0 0.0 0.00 0.00 0.00 46 1027.9
20220125212526 24 355 4.0 0.0 0.00 0.00 0.00 46 1027.8
20220125212429 24 350 2.0 0.0 0.00 0.00 0.00 46 1027.7
20220125212330 24 346 4.0 0.0 0.00 0.00 0.00 46 1027.8
20220125212244 24 334 8.0 0.0 0.00 0.00 0.00 46 1027.7
20220125212143 24 350 2.0 0.0 0.00 0.00 0.00 46 1027.8
20220125212044 24 349 4.0 0.0 0.00 0.00 0.00 46 1027.8
20220125211927 24 25 2.0 0.0 0.00 0.00 0.00 46 1027.9
20220125211825 24 0 4.0 0.0 0.00 0.00 0.00 46 1027.8
20220125211725 24 347 6.0 0.0 0.00 0.00 0.00 46 1027.8
20220125211646 24 10 1.0 0.0 0.00 0.00 0.00 46 1027.7
20220125211544 24 347 1.0 0.0 0.00 0.00 0.00 46 1027.7
20220125211441 24 347 0.0 0.0 0.00 0.00 0.00 46 1027.8
20220125211338 23 347 3.0 0.0 0.00 0.00 0.00 46 1027.9
20220125211244 24 346 3.0 0.0 0.00 0.00 0.00 46 1027.9
20220125211143 23 334 4.0 0.0 0.00 0.00 0.00 46 1027.7
20220125211042 24 338 5.0 0.0 0.00 0.00 0.00 46 1027.8
20220125210940 24 333 9.0 0.0 0.00 0.00 0.00 46 1027.8
20220125210837 24 331 6.0 0.0 0.00 0.00 0.00 46 1027.8
20220125210737 24 335 3.0 0.0 0.00 0.00 0.00 46 1027.7
20220125210640 24 335 6.0 0.0 0.00 0.00 0.00 46 1027.7
20220125210540 24 328 4.0 0.0 0.00 0.00 0.00 46 1027.7
20220125210441 24 326 5.0 0.0 0.00 0.00 0.00 46 1027.7
20220125210341 23 312 4.0 0.0 0.00 0.00 0.00 46 1027.6
20220125210241 23 295 5.0 0.0 0.00 0.00 0.00 46 1027.5
20220125210139 23 352 0.0 0.0 0.00 0.00 0.00 46 1027.5
20220125210037 23 351 1.0 0.0 0.00 0.00 0.00 45 1027.6
20220125205939 23 351 0.0 0.0 0.00 0.00 0.00 45 1027.6
20220125205838 23 347 4.0 0.0 0.00 0.00 0.00 45 1027.6
20220125205738 23 11 3.0 0.0 0.00 0.00 0.00 46 1027.7
20220125205637 23 0 4.0 0.0 0.00 0.00 0.00 45 1027.5
20220125205534 23 356 3.0 0.0 0.00 0.00 0.00 46 1027.6
20220125205432 23 345 3.0 0.0 0.00 0.00 0.00 46 1027.5
20220125205333 24 346 7.0 0.0 0.00 0.00 0.00 46 1027.6
20220125205235 24 318 6.0 0.0 0.00 0.00 0.00 46 1027.6
20220125205135 24 341 7.0 0.0 0.00 0.00 0.00 46 1027.7
20220125205035 24 353 4.0 0.0 0.00 0.00 0.00 46 1027.6
20220125204935 24 1 2.0 0.0 0.00 0.00 0.00 47 1027.6
20220125204835 24 1 4.0 0.0 0.00 0.00 0.00 47 1027.5
20220125204735 23 1 2.0 0.0 0.00 0.00 0.00 47 1027.5
20220125204637 23 1 0.0 0.0 0.00 0.00 0.00 46 1027.5
20220125204535 23 1 3.0 0.0 0.00 0.00 0.00 47 1027.5
20220125204436 23 1 3.0 0.0 0.00 0.00 0.00 47 1027.6
20220125204334 23 2 4.0 0.0 0.00 0.00 0.00 47 1027.6
20220125204231 23 2 2.0 0.0 0.00 0.00 0.00 47 1027.6
20220125204130 23 4 3.0 0.0 0.00 0.00 0.00 47 1027.5
20220125204030 23 6 4.0 0.0 0.00 0.00 0.00 47 1027.7
20220125203933 23 336 3.0 0.0 0.00 0.00 0.00 47 1027.7
20220125203833 23 331 4.0 0.0 0.00 0.00 0.00 47 1027.6
20220125203733 23 326 6.0 0.0 0.00 0.00 0.00 47 1027.7
20220125203633 23 350 6.0 0.0 0.00 0.00 0.00 47 1027.5
20220125203534 23 350 3.0 0.0 0.00 0.00 0.00 47 1027.6
20220125203435 23 350 1.0 0.0 0.00 0.00 0.00 47 1027.6
20220125203340 23 14 4.0 0.0 0.00 0.00 0.00 47 1027.7
20220125203238 23 347 6.0 0.0 0.00 0.00 0.00 47 1027.7
20220125203138 23 353 2.0 0.0 0.00 0.00 0.00 47 1027.7
20220125203037 23 344 9.0 0.0 0.00 0.00 0.00 47 1027.7
20220125202940 23 349 9.0 0.0 0.00 0.00 0.00 47 1027.7
20220125202839 23 11 3.0 0.0 0.00 0.00 0.00 47 1027.6
20220125202739 23 339 2.0 0.0 0.00 0.00 0.00 47 1027.7
20220125202645 23 340 6.0 0.0 0.00 0.00 0.00 47 1027.7
20220125202523 23 355 4.0 0.0 0.00 0.00 0.00 47 1027.6
20220125202424 23 1 5.0 0.0 0.00 0.00 0.00 47 1027.6
20220125202345 23 358 2.0 0.0 0.00 0.00 0.00 47 1027.7
20220125202243 23 337 10.0 0.0 0.00 0.00 0.00 47 1027.6
20220125202141 22 348 4.0 0.0 0.00 0.00 0.00 46 1027.7
20220125202044 22 344 5.0 0.0 0.00 0.00 0.00 47 1027.8
20220125201944 22 339 2.0 0.0 0.00 0.00 0.00 47 1027.7
20220125201841 22 339 4.0 0.0 0.00 0.00 0.00 47 1027.6
20220125201742 22 5 4.0 0.0 0.00 0.00 0.00 46 1027.6
20220125201641 22 6 3.0 0.0 0.00 0.00 0.00 46 1027.7
20220125201541 22 1 7.0 0.0 0.00 0.00 0.00 46 1027.7
20220125201441 22 1 8.0 0.0 0.00 0.00 0.00 47 1027.7
20220125201323 22 9 3.0 0.0 0.00 0.00 0.00 47 1027.6
20220125201224 22 12 5.0 0.0 0.00 0.00 0.00 47 1027.7
20220125201125 22 353 6.0 0.0 0.00 0.00 0.00 48 1027.7
20220125201026 22 347 2.0 0.0 0.00 0.00 0.00 47 1027.6
20220125200925 22 348 3.0 0.0 0.00 0.00 0.00 47 1027.6
20220125200825 22 350 5.0 0.0 0.00 0.00 0.00 47 1027.7
20220125200732 22 338 3.0 0.0 0.00 0.00 0.00 47 1027.6
20220125200628 22 331 7.0 0.0 0.00 0.00 0.00 47 1027.7
20220125200525 22 320 5.0 0.0 0.00 0.00 0.00 47 1027.8
20220125200425 22 339 11.0 0.0 0.00 0.00 0.00 47 1027.8
20220125200325 22 329 2.0 0.0 0.00 0.00 0.00 48 1027.7
20220125200244 22 329 0.0 0.0 0.00 0.00 0.00 48 1027.7
20220125200128 22 329 0.0 0.0 0.00 0.00 0.00 47 1027.8
20220125200044 22 329 3.0 0.0 0.00 0.00 0.00 47 1027.9
20220125195942 22 325 4.0 0.0 0.00 0.00 0.00 47 1027.8
20220125195843 22 332 7.0 0.0 0.00 0.00 0.00 47 1027.8
20220125195742 22 339 11.0 0.0 0.00 0.00 0.00 47 1027.8
20220125195641 23 339 3.0 0.0 0.00 0.00 0.00 47 1027.9
20220125195541 23 344 9.0 0.0 0.00 0.00 0.00 47 1027.9
20220125195443 23 328 4.0 0.0 0.00 0.00 0.00 47 1027.9
20220125195342 23 333 4.0 0.0 0.00 0.00 0.00 47 1028.0
20220125195241 23 357 4.0 0.0 0.00 0.00 0.00 47 1027.9
20220125195140 23 18 3.0 0.0 0.00 0.00 0.00 47 1027.9
20220125195039 23 0 4.0 0.0 0.00 0.00 0.00 47 1027.8
20220125194938 23 347 4.0 0.0 0.00 0.00 0.00 48 1027.8
20220125194835 23 329 6.0 0.0 0.00 0.00 0.00 48 1027.7
20220125194739 23 13 2.0 0.0 0.00 0.00 0.00 48 1027.9
20220125194639 23 342 6.0 0.0 0.00 0.00 0.00 48 1027.8
20220125194538 23 358 8.0 0.0 0.00 0.00 0.00 49 1027.8
20220125194437 23 10 0.0 0.0 0.00 0.00 0.00 49 1027.9
20220125194337 23 10 2.0 0.0 0.00 0.00 0.00 49 1027.9
20220125194236 23 10 0.0 0.0 0.00 0.00 0.00 48 1028.0
20220125194138 23 12 4.0 0.0 0.00 0.00 0.00 48 1028.0
20220125194037 23 358 3.0 0.0 0.00 0.00 0.00 48 1028.0
20220125193935 22 351 5.0 0.0 0.00 0.00 0.00 48 1027.9
20220125193833 22 0 4.0 0.0 0.00 0.00 0.00 49 1027.9
20220125193733 22 0 3.0 0.0 0.00 0.00 0.00 49 1028.0
20220125193631 22 359 3.0 0.0 0.00 0.00 0.00 49 1027.8
20220125193529 22 10 5.0 0.0 0.00 0.00 0.00 48 1027.9
20220125193432 22 10 4.0 0.0 0.00 0.00 0.00 49 1028.1
20220125193330 22 344 5.0 0.0 0.00 0.00 0.00 49 1028.0
20220125193229 22 12 2.0 0.0 0.00 0.00 0.00 49 1028.1
20220125193129 22 10 3.0 0.0 0.00 0.00 0.00 49 1028.0
20220125193028 22 342 4.0 0.0 0.00 0.00 0.00 49 1028.1
20220125192925 22 333 8.0 0.0 0.00 0.00 0.00 49 1028.1
20220125192829 22 0 3.0 0.0 0.00 0.00 0.00 49 1028.1
20220125192727 22 0 2.0 0.0 0.00 0.00 0.00 49 1028.1
20220125192626 22 0 3.0 0.0 0.00 0.00 0.00 49 1028.1
20220125192526 22 3 2.0 0.0 0.00 0.00 0.00 49 1028.1
20220125192426 22 359 5.0 0.0 0.00 0.00 0.00 50 1028.2
20220125192327 22 0 3.0 0.0 0.00 0.00 0.00 50 1028.2
20220125192228 22 6 7.0 0.0 0.00 0.00 0.00 51 1028.2
20220125192130 22 352 3.0 0.0 0.00 0.00 0.00 51 1028.1
20220125192030 22 344 0.0 0.0 0.00 0.00 0.00 50 1028.1
20220125191931 22 347 3.0 0.0 0.00 0.00 0.00 50 1028.1
20220125191827 22 348 5.0 0.0 0.00 0.00 0.00 50 1028.0
20220125191726 22 15 3.0 0.0 0.00 0.00 0.00 50 1028.1
20220125191627 22 14 4.0 0.0 0.00 0.00 0.00 51 1028.1
20220125191531 22 14 5.0 0.0 0.00 0.00 0.00 51 1028.1
20220125191433 21 8 4.0 0.0 0.00 0.00 0.00 51 1028.0
20220125191333 21 343 8.0 0.0 0.00 0.00 0.00 50 1028.0
20220125191235 21 3 4.0 0.0 0.00 0.00 0.00 50 1028.1
20220125191134 21 349 7.0 0.0 0.00 0.00 0.00 50 1028.0
20220125191036 21 7 5.0 0.0 0.00 0.00 0.00 51 1028.1
20220125190935 21 1 3.0 0.0 0.00 0.00 0.00 50 1028.1
20220125190839 21 0 5.0 0.0 0.00 0.00 0.00 51 1028.0
20220125190742 21 359 3.0 0.0 0.00 0.00 0.00 51 1028.0
20220125190639 21 358 10.0 0.0 0.00 0.00 0.00 51 1028.0
20220125190538 21 330 8.0 0.0 0.00 0.00 0.00 51 1027.9
20220125190437 21 322 7.0 0.0 0.00 0.00 0.00 51 1027.9
20220125190338 21 343 4.0 0.0 0.00 0.00 0.00 52 1028.0
20220125190243 21 317 3.0 0.0 0.00 0.00 0.00 51 1028.0
20220125190142 21 351 7.0 0.0 0.00 0.00 0.00 52 1027.9
20220125190041 21 357 3.0 0.0 0.00 0.00 0.00 52 1027.9
20220125185941 21 347 2.0 0.0 0.00 0.00 0.00 52 1027.9
20220125185842 21 348 4.0 0.0 0.00 0.00 0.00 52 1027.9
20220125185742 21 18 5.0 0.0 0.00 0.00 0.00 52 1027.9
20220125185638 21 334 2.0 0.0 0.00 0.00 0.00 52 1027.8
20220125185541 21 344 7.0 0.0 0.00 0.00 0.00 52 1027.9
20220125185442 21 356 5.0 0.0 0.00 0.00 0.00 52 1027.9
20220125185340 21 354 5.0 0.0 0.00 0.00 0.00 51 1027.8
20220125185238 21 10 11.0 0.0 0.00 0.00 0.00 51 1027.8
20220125185139 21 1 6.0 0.0 0.00 0.00 0.00 51 1027.8
20220125185039 21 5 7.0 0.0 0.00 0.00 0.00 52 1027.9
20220125184942 21 350 3.0 0.0 0.00 0.00 0.00 51 1027.9
20220125184843 21 337 10.0 0.0 0.00 0.00 0.00 51 1027.9
20220125184743 21 334 6.0 0.0 0.00 0.00 0.00 51 1027.8
20220125184641 21 318 4.0 0.0 0.00 0.00 0.00 51 1028.0
20220125184542 21 353 7.0 0.0 0.00 0.00 0.00 51 1028.1
20220125184443 21 343 11.0 0.0 0.00 0.00 0.00 52 1028.0
20220125184327 21 342 10.0 0.0 0.00 0.00 0.00 53 1028.1
20220125184227 21 0 4.0 0.0 0.00 0.00 0.00 53 1028.1
20220125184129 21 350 5.0 0.0 0.00 0.00 0.00 52 1028.1
20220125184029 21 344 2.0 0.0 0.00 0.00 0.00 52 1027.9
20220125183928 20 345 7.0 0.0 0.00 0.00 0.00 52 1028.0
20220125183828 20 317 6.0 0.0 0.00 0.00 0.00 52 1028.1
20220125183727 20 14 3.0 0.0 0.00 0.00 0.00 52 1028.2
20220125183630 20 11 4.0 0.0 0.00 0.00 0.00 52 1028.1
20220125183530 21 3 7.0 0.0 0.00 0.00 0.00 53 1028.2
20220125183428 20 326 5.0 0.0 0.00 0.00 0.00 53 1028.2
20220125183326 20 348 10.0 0.0 0.00 0.00 0.00 53 1028.1
20220125183226 20 345 4.0 0.0 0.00 0.00 0.00 53 1028.1
20220125183124 21 342 5.0 0.0 0.00 0.00 0.00 53 1028.2
20220125183030 21 346 4.0 0.0 0.00 0.00 0.00 53 1028.2
20220125182929 21 355 5.0 0.0 0.00 0.00 0.00 53 1028.2
20220125182830 21 352 4.0 0.0 0.00 0.00 0.00 54 1028.0
20220125182730 21 338 6.0 0.0 0.00 0.00 0.00 54 1028.1
20220125182630 20 358 6.0 0.0 0.00 0.00 0.00 54 1028.1
20220125182531 20 6 6.0 0.0 0.00 0.00 0.00 54 1028.1
20220125182429 20 9 5.0 0.0 0.00 0.00 0.00 54 1028.1
20220125182334 20 13 5.0 0.0 0.00 0.00 0.00 54 1028.0
20220125182232 20 12 3.0 0.0 0.00 0.00 0.00 54 1028.0
20220125182131 20 6 7.0 0.0 0.00 0.00 0.00 54 1028.1
20220125182032 20 338 3.0 0.0 0.00 0.00 0.00 54 1028.1
20220125181930 20 0 2.0 0.0 0.00 0.00 0.00 54 1028.1
20220125181827 20 339 10.0 0.0 0.00 0.00 0.00 54 1028.1
20220125181732 20 358 8.0 0.0 0.00 0.00 0.00 54 1028.2
20220125181632 20 341 2.0 0.0 0.00 0.00 0.00 55 1028.1
20220125181531 20 5 3.0 0.0 0.00 0.00 0.00 55 1028.2
20220125181432 20 10 6.0 0.0 0.00 0.00 0.00 55 1028.3
20220125181328 20 335 4.0 0.0 0.00 0.00 0.00 55 1028.2
20220125181225 20 356 5.0 0.0 0.00 0.00 0.00 55 1028.2
20220125181125 20 335 9.0 0.0 0.00 0.00 0.00 55 1028.2
20220125181030 20 329 4.0 0.0 0.00 0.00 0.00 55 1028.3
20220125180931 20 323 11.0 0.0 0.00 0.00 0.00 55 1028.3
20220125180830 20 328 4.0 0.0 0.00 0.00 0.00 55 1028.1
20220125180731 20 341 7.0 0.0 0.00 0.00 0.00 56 1028.2
20220125180629 20 340 6.0 0.0 0.00 0.00 0.00 56 1028.2
20220125180529 20 316 8.0 0.0 0.00 0.00 0.00 56 1028.2
20220125180434 20 337 4.0 0.0 0.00 0.00 0.00 56 1028.2
20220125180332 20 9 3.0 0.0 0.00 0.00 0.00 55 1028.3
20220125180232 20 9 4.0 0.0 0.00 0.00 0.00 55 1028.2
20220125180132 20 10 3.0 0.0 0.00 0.00 0.00 55 1028.3
20220125180030 20 12 5.0 0.0 0.00 0.00 0.00 56 1028.3
20220125175929 19 14 3.0 0.0 0.00 0.00 0.00 55 1028.3
20220125175830 19 10 4.0 0.0 0.00 0.00 0.00 55 1028.4
20220125175734 19 2 4.0 0.0 0.00 0.00 0.00 56 1028.3
20220125175632 19 10 4.0 0.0 0.00 0.00 0.00 57 1028.4
20220125175533 19 343 7.0 0.0 0.00 0.00 0.00 57 1028.4
20220125175429 19 341 1.0 0.0 0.00 0.00 0.00 57 1028.4
20220125175326 19 332 6.0 0.0 0.00 0.00 0.00 57 1028.4
20220125175226 19 322 8.0 0.0 0.00 0.00 0.00 57 1028.3
20220125175128 19 338 3.0 0.0 0.00 0.00 0.00 57 1028.5
20220125175027 19 340 11.0 0.0 0.00 0.00 0.00 57 1028.4
20220125174926 19 323 4.0 0.0 0.00 0.00 0.00 57 1028.6
20220125174844 19 349 9.0 0.0 0.00 0.00 0.00 58 1028.4
20220125174744 19 353 6.0 0.0 0.00 0.00 0.00 58 1028.4
20220125174642 19 336 7.0 0.0 0.00 0.00 0.00 58 1028.4
20220125174541 19 350 5.0 0.0 0.00 0.00 0.00 58 1028.5
20220125174423 19 352 4.0 0.0 0.00 0.00 0.00 58 1028.6
20220125174325 19 349 4.0 0.0 0.00 0.00 0.00 57 1028.5
20220125174226 19 355 9.0 0.0 0.00 0.00 0.00 58 1028.5
20220125174125 19 6 6.0 0.0 0.00 0.00 0.00 58 1028.7
20220125174026 19 0 4.0 0.0 0.00 0.00 0.00 58 1028.6
20220125173944 19 17 5.0 0.0 0.00 0.00 0.00 59 1028.7
20220125173827 19 0 4.0 0.0 0.00 0.00 0.00 59 1028.6
20220125173728 19 8 7.0 0.0 0.00 0.00 0.00 58 1028.8
20220125173628 19 353 3.0 0.0 0.00 0.00 0.00 59 1028.7
20220125173547 19 357 5.0 0.0 0.00 0.00 0.00 58 1028.6
20220125173425 19 352 4.0 0.0 0.00 0.00 0.00 58 1028.8
20220125173344 19 342 9.0 0.0 0.00 0.00 0.00 59 1028.5
20220125173244 19 334 10.0 0.0 0.00 0.00 0.00 59 1028.7
20220125173128 19 336 9.0 0.0 0.00 0.00 0.00 59 1028.6
20220125173044 19 355 6.0 0.0 0.00 0.00 0.00 59 1028.8
20220125172945 19 327 7.0 0.0 0.00 0.00 0.00 59 1028.7
20220125172842 18 318 4.0 0.0 0.00 0.00 0.00 59 1028.7
20220125172742 18 353 2.0 0.0 0.00 0.00 0.00 58 1028.7
20220125172644 19 351 7.0 0.0 0.00 0.00 0.00 59 1028.6
20220125172540 19 346 5.0 0.0 0.00 0.00 0.00 59 1028.7
20220125172442 19 6 6.0 0.0 0.00 0.00 0.00 60 1028.8
20220125172340 19 345 7.0 0.0 0.00 0.00 0.00 61 1028.7
20220125172240 18 330 10.0 0.0 0.00 0.00 0.00 60 1028.6
20220125172138 18 21 3.0 0.0 0.00 0.00 0.00 60 1028.7
20220125172036 18 21 4.0 0.0 0.00 0.00 0.00 60 1028.8
20220125171936 18 14 5.0 0.0 0.00 0.00 0.00 60 1028.7
20220125171842 19 16 5.0 0.0 0.00 0.00 0.00 61 1028.8
20220125171741 19 6 7.0 0.0 0.00 0.00 0.00 62 1028.7
20220125171642 19 2 8.0 0.0 0.00 0.00 0.00 62 1028.8
20220125171543 18 355 0.0 0.0 0.00 0.00 0.00 62 1028.7
20220125171443 18 355 1.0 0.0 0.00 0.00 0.00 62 1028.9
20220125171342 18 356 5.0 0.0 0.00 0.00 0.00 62 1028.7
20220125171227 18 336 9.0 0.0 0.00 0.00 0.00 63 1028.7
20220125171125 18 348 3.0 0.0 0.00 0.00 0.00 63 1028.8
20220125171045 18 351 3.0 0.0 0.00 0.00 0.00 63 1028.8
20220125170944 18 5 5.0 0.0 0.00 0.00 0.00 64 1028.8
20220125170845 18 331 6.0 0.0 0.00 0.00 0.00 64 1028.8
20220125170743 18 321 8.0 0.0 0.00 0.00 0.00 64 1028.7
20220125170642 18 24 1.0 0.0 0.00 0.00 0.00 64 1028.7
20220125170544 18 0 3.0 0.0 0.00 0.00 0.00 64 1028.8
20220125170445 18 338 6.0 0.0 0.00 0.00 0.00 64 1028.8
20220125170344 18 345 1.0 0.0 0.00 0.00 0.00 64 1028.7
20220125170242 18 342 8.0 0.0 0.00 0.00 0.00 64 1028.7
20220125170141 18 341 7.0 0.0 0.00 0.00 0.00 65 1028.7
20220125170041 18 349 5.0 0.0 0.00 0.00 0.00 65 1028.7
20220125165938 18 0 5.0 0.0 0.00 0.00 0.00 65 1028.8
20220125165843 18 0 3.0 0.0 0.00 0.00 0.00 65 1028.7
20220125165742 18 355 6.0 0.0 0.00 0.00 0.00 65 1028.7
20220125165643 17 344 7.0 0.0 0.00 0.00 0.00 65 1028.7
20220125165542 17 348 3.0 0.0 0.00 0.00 0.00 65 1028.7
20220125165441 17 353 3.0 0.0 0.00 0.00 0.00 65 1028.7
20220125165339 17 324 7.0 0.0 0.00 0.00 0.00 65 1028.8
20220125165243 17 344 3.0 0.0 0.00 0.00 0.00 65 1028.8
20220125165144 17 344 7.0 0.0 0.00 0.00 0.00 65 1028.8
20220125165043 18 346 6.0 0.0 0.00 0.00 0.00 65 1028.8
20220125164945 18 8 6.0 0.0 0.00 0.00 0.00 66 1028.9
20220125164843 18 0 3.0 0.0 0.00 0.00 0.00 66 1028.7
20220125164742 18 8 8.0 0.0 0.00 0.00 0.00 66 1028.7
20220125164625 18 349 8.0 0.0 0.00 0.00 0.00 66 1028.7
20220125164528 18 345 4.0 0.0 0.00 0.00 0.00 67 1028.6
20220125164428 17 331 3.0 0.0 0.00 0.00 0.00 67 1028.7
20220125164327 17 359 4.0 0.0 0.00 0.00 0.00 67 1028.6
20220125164227 17 4 5.0 0.0 0.00 0.00 0.00 67 1028.8
20220125164146 17 315 0.0 0.0 0.00 0.00 0.00 67 1028.7
20220125164044 17 337 6.0 0.0 0.00 0.00 0.00 67 1028.6
20220125163925 17 350 0.0 0.0 0.00 0.00 0.00 67 1028.6
20220125163843 17 350 0.0 0.0 0.00 0.00 0.00 67 1028.7
20220125163744 17 347 3.0 0.0 0.00 0.00 0.00 67 1028.8
20220125163642 17 335 9.0 0.0 0.00 0.00 0.00 67 1028.6
20220125163540 17 337 6.0 0.0 0.00 0.00 0.00 68 1028.6
20220125163439 17 328 9.0 0.0 0.00 0.00 0.00 67 1028.6
20220125163337 17 340 5.0 0.0 0.00 0.00 0.00 67 1028.6
20220125163239 17 332 8.0 0.0 0.00 0.00 0.00 67 1028.6
20220125163137 17 316 6.0 0.0 0.00 0.00 0.00 67 1028.5
20220125163035 17 342 0.0 0.0 0.00 0.00 0.00 67 1028.6
20220125162935 17 342 0.0 0.0 0.00 0.00 0.00 67 1028.5
20220125162835 17 342 0.0 0.0 0.00 0.00 0.00 67 1028.5
20220125162734 17 342 3.0 0.0 0.00 0.00 0.00 67 1028.4
20220125162636 17 351 3.0 0.0 0.00 0.00 0.00 68 1028.5
20220125162535 17 5 4.0 0.0 0.00 0.00 0.00 68 1028.5
20220125162435 17 343 3.0 0.0 0.00 0.00 0.00 68 1028.5
20220125162334 17 1 1.0 0.0 0.00 0.00 0.00 68 1028.4
20220125162236 17 1 0.0 0.0 0.00 0.00 0.00 68 1028.3
20220125162137 17 2 3.0 0.0 0.00 0.00 0.00 68 1028.4
20220125162036 17 2 3.0 0.0 0.00 0.00 0.00 68 1028.4
20220125161940 17 6 3.0 0.0 0.00 0.00 0.00 68 1028.6
20220125161840 17 19 3.0 0.0 0.00 0.00 0.00 68 1028.5
20220125161740 17 3 5.0 0.0 0.00 0.00 0.00 69 1028.5
20220125161638 16 354 2.0 0.0 0.00 0.00 0.00 70 1028.4
20220125161539 16 350 0.0 0.0 0.00 0.00 0.00 69 1028.4
20220125161436 16 350 1.0 0.0 0.00 0.00 0.00 69 1028.3
20220125161340 16 350 2.0 0.0 0.00 0.00 0.00 69 1028.3
20220125161239 16 350 3.0 0.0 0.00 0.00 0.00 69 1028.3
20220125161138 16 353 2.0 0.0 0.00 0.00 0.00 69 1028.3
20220125161038 16 355 5.0 0.0 0.00 0.00 0.00 69 1028.3
20220125160940 16 358 3.0 0.0 0.00 0.00 0.00 69 1028.2
20220125160840 16 2 3.0 0.0 0.00 0.00 0.00 69 1028.1
20220125160738 16 5 4.0 0.0 0.00 0.00 0.00 69 1028.1
20220125160641 16 6 1.0 0.0 0.00 0.00 0.00 69 1028.2
20220125160541 16 10 3.0 0.0 0.00 0.00 0.00 69 1028.3
20220125160439 16 347 5.0 0.0 0.00 0.00 0.00 70 1028.2
20220125160339 16 341 4.0 0.0 0.00 0.00 0.00 69 1028.2
20220125160236 16 336 4.0 0.0 0.00 0.00 0.00 70 1028.2
20220125160133 16 342 2.0 0.0 0.00 0.00 0.00 70 1028.3
20220125160036 16 347 2.0 0.0 0.00 0.00 0.00 70 1028.2
20220125155935 16 339 2.0 0.0 0.00 0.00 0.00 70 1028.1
20220125155835 16 339 2.0 0.0 0.00 0.00 0.00 69 1028.2
20220125155733 16 341 5.0 0.0 0.00 0.00 0.00 70 1028.2
20220125155631 16 340 7.0 0.0 0.00 0.00 0.00 70 1028.0
20220125155530 15 12 4.0 0.0 0.00 0.00 0.00 70 1028.1
20220125155431 15 7 8.0 0.0 0.00 0.00 0.00 70 1028.0
20220125155336 15 0 4.0 0.0 0.00 0.00 0.00 70 1028.0
20220125155237 15 0 2.0 0.0 0.00 0.00 0.00 70 1028.0
20220125155138 15 0 3.0 0.0 0.00 0.00 0.00 70 1028.0
20220125155036 15 0 5.0 0.0 0.00 0.00 0.00 70 1028.0
20220125154934 15 342 7.0 0.0 0.00 0.00 0.00 70 1027.8
20220125154833 15 0 6.0 0.0 0.00 0.00 0.00 70 1027.8
20220125154739 15 0 2.0 0.0 0.00 0.00 0.00 70 1027.9
20220125154637 15 1 6.0 0.0 0.00 0.00 0.00 71 1027.8
20220125154536 15 359 5.0 0.0 0.00 0.00 0.00 71 1027.9
20220125154435 15 347 5.0 0.0 0.00 0.00 0.00 71 1027.9
20220125154337 15 1 6.0 0.0 0.00 0.00 0.00 71 1027.9
20220125154238 15 2 3.0 0.0 0.00 0.00 0.00 70 1027.9
20220125154139 15 2 3.0 0.0 0.00 0.00 0.00 71 1027.8
20220125154042 15 2 5.0 0.0 0.00 0.00 0.00 71 1027.9
20220125153943 15 2 3.0 0.0 0.00 0.00 0.00 71 1027.8
20220125153843 15 2 3.0 0.0 0.00 0.00 0.00 70 1028.0
20220125153743 15 2 4.0 0.0 0.00 0.00 0.00 71 1027.7
20220125153645 15 0 6.0 0.0 0.00 0.00 0.00 71 1027.9
20220125153543 15 351 5.0 0.0 0.00 0.00 0.00 71 1027.6
20220125153428 15 336 6.0 0.0 0.00 0.00 0.00 72 1027.6
20220125153328 15 341 7.0 0.0 0.00 0.00 0.00 72 1027.7
20220125153227 15 0 3.0 0.0 0.00 0.00 0.00 72 1027.7
20220125153126 15 342 5.0 0.0 0.00 0.00 0.00 72 1027.5
20220125153027 15 339 2.0 0.0 0.00 0.00 0.00 72 1027.6
20220125152930 15 330 6.0 0.0 0.00 0.00 0.00 72 1027.7
20220125152831 15 316 6.0 0.0 0.00 0.00 0.00 72 1027.6
20220125152730 14 6 3.0 0.0 0.00 0.00 0.00 72 1027.7
20220125152631 14 7 2.0 0.0 0.00 0.00 0.00 72 1027.5
20220125152531 14 7 2.0 0.0 0.00 0.00 0.00 73 1027.5
20220125152430 14 7 0.0 0.0 0.00 0.00 0.00 72 1027.6
20220125152330 14 7 0.0 0.0 0.00 0.00 0.00 72 1027.5
20220125152231 14 7 0.0 0.0 0.00 0.00 0.00 72 1027.6
20220125152133 14 7 2.0 0.0 0.00 0.00 0.00 72 1027.5
20220125152034 14 7 1.0 0.0 0.00 0.00 0.00 72 1027.5
20220125151934 14 7 4.0 0.0 0.00 0.00 0.00 72 1027.5
20220125151832 14 9 7.0 0.0 0.00 0.00 0.00 73 1027.6
20220125151732 14 346 4.0 0.0 0.00 0.00 0.00 72 1027.4
20220125151631 14 342 10.0 0.0 0.00 0.00 0.00 73 1027.4
20220125151535 14 317 0.0 0.0 0.00 0.00 0.00 73 1027.4
20220125151436 14 316 2.0 0.0 0.00 0.00 0.00 72 1027.4
20220125151337 14 336 5.0 0.0 0.00 0.00 0.00 73 1027.3
20220125151236 14 247 4.0 0.0 0.00 0.00 0.00 73 1027.2
20220125151139 14 352 2.0 0.0 0.00 0.00 0.00 73 1027.3
20220125151037 14 352 4.0 0.0 0.00 0.00 0.00 73 1027.3
20220125150936 14 10 6.0 0.0 0.00 0.00 0.00 72 1027.3
20220125150839 14 8 6.0 0.0 0.00 0.00 0.00 73 1027.2
20220125150736 14 11 3.0 0.0 0.00 0.00 0.00 73 1027.3
20220125150637 14 12 2.0 0.0 0.00 0.00 0.00 73 1027.4
20220125150536 14 4 3.0 0.0 0.00 0.00 0.00 73 1027.2
20220125150438 14 2 3.0 0.0 0.00 0.00 0.00 73 1027.1
20220125150336 14 0 3.0 0.0 0.00 0.00 0.00 73 1027.2
20220125150244 14 358 2.0 0.0 0.00 0.00 0.00 73 1027.1
20220125150142 14 358 3.0 0.0 0.00 0.00 0.00 73 1027.1
20220125150042 14 358 3.0 0.0 0.00 0.00 0.00 73 1027.1
20220125145943 14 0 5.0 0.0 0.00 0.00 0.00 74 1027.1
20220125145840 14 0 4.0 0.0 0.00 0.00 0.00 74 1027.0
20220125145742 14 0 4.0 0.0 0.00 0.00 0.00 73 1027.0
20220125145625 14 0 4.0 0.0 0.00 0.00 0.00 74 1027.0
20220125145526 14 0 2.0 0.0 0.00 0.00 0.00 74 1027.1
20220125145426 14 0 5.0 0.0 0.00 0.00 0.00 74 1027.1
20220125145324 14 1 3.0 0.0 0.00 0.00 0.00 74 1027.2
20220125145245 14 350 6.0 0.0 0.00 0.00 0.00 74 1027.0
20220125145143 14 342 4.0 0.0 0.00 0.00 0.00 74 1027.1
20220125145043 14 335 1.0 0.0 0.00 0.00 0.00 74 1027.0
20220125144925 14 335 3.0 0.0 0.00 0.00 0.00 74 1027.0
20220125144828 13 336 1.0 0.0 0.00 0.00 0.00 74 1027.1
20220125144730 13 335 5.0 0.0 0.00 0.00 0.00 74 1027.0
20220125144633 13 335 1.0 0.0 0.00 0.00 0.00 74 1026.9
20220125144534 13 335 4.0 0.0 0.00 0.00 0.00 74 1027.0
20220125144433 13 335 5.0 0.0 0.00 0.00 0.00 74 1027.0
20220125144338 13 353 4.0 0.0 0.00 0.00 0.00 74 1026.8
20220125144237 13 2 3.0 0.0 0.00 0.00 0.00 74 1026.8
20220125144136 13 330 5.0 0.0 0.00 0.00 0.00 74 1026.7
20220125144037 13 342 3.0 0.0 0.00 0.00 0.00 74 1026.9
20220125143937 13 340 9.0 0.0 0.00 0.00 0.00 75 1026.8
20220125143836 13 338 2.0 0.0 0.00 0.00 0.00 75 1026.8
20220125143737 13 322 2.0 0.0 0.00 0.00 0.00 75 1026.7
20220125143641 13 322 0.0 0.0 0.00 0.00 0.00 75 1026.7
20220125143538 13 322 1.0 0.0 0.00 0.00 0.00 75 1026.8
20220125143439 13 320 2.0 0.0 0.00 0.00 0.00 75 1026.5
20220125143342 13 320 0.0 0.0 0.00 0.00 0.00 74 1026.6
20220125143239 13 322 3.0 0.0 0.00 0.00 0.00 75 1026.6
20220125143142 13 348 3.0 0.0 0.00 0.00 0.00 75 1026.5
20220125143024 13 345 2.0 0.0 0.00 0.00 0.00 74 1026.4
20220125142927 13 346 2.0 0.0 0.00 0.00 0.00 75 1026.5
20220125142828 13 12 3.0 0.0 0.00 0.00 0.00 75 1026.5
20220125142727 13 10 2.0 0.0 0.00 0.00 0.00 75 1026.4
20220125142628 13 9 5.0 0.0 0.00 0.00 0.00 75 1026.5
20220125142528 13 356 4.0 0.0 0.00 0.00 0.00 75 1026.5
20220125142429 13 356 4.0 0.0 0.00 0.00 0.00 75 1026.4
20220125142329 13 356 4.0 0.0 0.00 0.00 0.00 75 1026.5
20220125142232 13 343 3.0 0.0 0.00 0.00 0.00 75 1026.5
20220125142133 13 341 2.0 0.0 0.00 0.00 0.00 75 1026.5
20220125142034 13 3 6.0 0.0 0.00 0.00 0.00 75 1026.4
20220125141930 13 337 4.0 0.0 0.00 0.00 0.00 75 1026.5
20220125141833 13 357 5.0 0.0 0.00 0.00 0.00 75 1026.4
20220125141739 13 0 2.0 0.0 0.00 0.00 0.00 75 1026.5
20220125141640 13 0 3.0 0.0 0.00 0.00 0.00 75 1026.4
20220125141540 13 0 4.0 0.0 0.00 0.00 0.00 76 1026.4
20220125141440 13 0 3.0 0.0 0.00 0.00 0.00 76 1026.3
20220125141339 13 0 2.0 0.0 0.00 0.00 0.00 75 1026.5
20220125141240 13 356 5.0 0.0 0.00 0.00 0.00 75 1026.5
20220125141143 13 345 5.0 0.0 0.00 0.00 0.00 76 1026.3
20220125141024 13 6 4.0 0.0 0.00 0.00 0.00 75 1026.2
20220125140944 13 2 5.0 0.0 0.00 0.00 0.00 76 1026.1
20220125140845 13 0 3.0 0.0 0.00 0.00 0.00 76 1026.2
20220125140742 13 333 5.0 0.0 0.00 0.00 0.00 76 1026.2
20220125140641 13 340 3.0 0.0 0.00 0.00 0.00 76 1026.2
20220125140539 13 353 5.0 0.0 0.00 0.00 0.00 76 1026.1
20220125140426 13 356 4.0 0.0 0.00 0.00 0.00 76 1026.0
20220125140326 13 2 4.0 0.0 0.00 0.00 0.00 76 1026.0
20220125140246 13 359 4.0 0.0 0.00 0.00 0.00 76 1026.0
20220125140124 13 0 4.0 0.0 0.00 0.00 0.00 76 1026.0
20220125140027 13 0 4.0 0.0 0.00 0.00 0.00 76 1025.9
20220125135928 13 0 3.0 0.0 0.00 0.00 0.00 76 1026.0
20220125135830 13 1 6.0 0.0 0.00 0.00 0.00 76 1025.8
20220125135731 13 25 5.0 0.0 0.00 0.00 0.00 76 1025.9
20220125135630 13 346 3.0 0.0 0.00 0.00 0.00 77 1026.1
20220125135528 13 0 3.0 0.0 0.00 0.00 0.00 77 1025.9
20220125135429 13 354 5.0 0.0 0.00 0.00 0.00 76 1025.9
20220125135329 13 352 2.0 0.0 0.00 0.00 0.00 76 1025.8
20220125135234 13 356 2.0 0.0 0.00 0.00 0.00 76 1025.9
20220125135134 13 357 2.0 0.0 0.00 0.00 0.00 76 1025.8
20220125135033 13 343 2.0 0.0 0.00 0.00 0.00 76 1025.9
20220125134934 13 343 3.0 0.0 0.00 0.00 0.00 76 1025.9
20220125134836 13 347 4.0 0.0 0.00 0.00 0.00 76 1025.9
20220125134736 13 352 7.0 0.0 0.00 0.00 0.00 76 1025.9
20220125134638 13 357 3.0 0.0 0.00 0.00 0.00 76 1025.8
20220125134540 13 336 6.0 0.0 0.00 0.00 0.00 76 1025.8
20220125134440 13 335 3.0 0.0 0.00 0.00 0.00 76 1025.8
20220125134343 13 350 3.0 0.0 0.00 0.00 0.00 76 1025.8
20220125134245 13 339 10.0 0.0 0.00 0.00 0.00 76 1025.8
20220125134144 13 339 3.0 0.0 0.00 0.00 0.00 76 1025.7
20220125134024 13 355 4.0 0.0 0.00 0.00 0.00 76 1025.7
20220125133929 13 358 2.0 0.0 0.00 0.00 0.00 76 1025.7
20220125133828 13 358 3.0 0.0 0.00 0.00 0.00 76 1025.6
20220125133727 13 0 3.0 0.0 0.00 0.00 0.00 76 1025.8
20220125133626 13 0 5.0 0.0 0.00 0.00 0.00 76 1025.7
20220125133527 13 359 2.0 0.0 0.00 0.00 0.00 76 1025.8
20220125133427 13 339 4.0 0.0 0.00 0.00 0.00 76 1025.8
20220125133330 13 5 6.0 0.0 0.00 0.00 0.00 76 1025.6
20220125133230 13 343 3.0 0.0 0.00 0.00 0.00 76 1025.7
20220125133131 13 347 3.0 0.0 0.00 0.00 0.00 76 1025.7
20220125133029 13 358 6.0 0.0 0.00 0.00 0.00 76 1025.7
20220125132932 13 342 9.0 0.0 0.00 0.00 0.00 76 1025.7
20220125132831 13 0 4.0 0.0 0.00 0.00 0.00 76 1025.6
20220125132729 13 353 5.0 0.0 0.00 0.00 0.00 76 1025.6
20220125132635 13 343 7.0 0.0 0.00 0.00 0.00 76 1025.6
20220125132536 13 354 4.0 0.0 0.00 0.00 0.00 76 1025.6
20220125132435 13 341 5.0 0.0 0.00 0.00 0.00 76 1025.6
20220125132335 13 357 5.0 0.0 0.00 0.00 0.00 76 1025.4
20220125132234 13 339 10.0 0.0 0.00 0.00 0.00 76 1025.4
20220125132131 13 338 2.0 0.0 0.00 0.00 0.00 76 1025.5
20220125132039 13 338 2.0 0.0 0.00 0.00 0.00 76 1025.3
20220125131940 13 352 6.0 0.0 0.00 0.00 0.00 76 1025.4
20220125131840 13 348 5.0 0.0 0.00 0.00 0.00 76 1025.3
20220125131737 13 346 4.0 0.0 0.00 0.00 0.00 76 1025.3
20220125131638 13 349 4.0 0.0 0.00 0.00 0.00 76 1025.3
20220125131541 13 11 7.0 0.0 0.00 0.00 0.00 76 1025.3
20220125131441 13 0 2.0 0.0 0.00 0.00 0.00 76 1025.3
20220125131343 13 0 2.0 0.0 0.00 0.00 0.00 76 1025.2
20220125131242 13 350 5.0 0.0 0.00 0.00 0.00 76 1025.4
20220125131143 13 351 6.0 0.0 0.00 0.00 0.00 76 1025.3
20220125131044 13 358 3.0 0.0 0.00 0.00 0.00 76 1025.3
20220125130924 13 356 3.0 0.0 0.00 0.00 0.00 76 1025.2
20220125130824 13 357 5.0 0.0 0.00 0.00 0.00 76 1025.2
20220125130729 13 357 2.0 0.0 0.00 0.00 0.00 76 1025.2
20220125130629 13 358 3.0 0.0 0.00 0.00 0.00 76 1025.0
20220125130529 13 358 2.0 0.0 0.00 0.00 0.00 76 1025.1
20220125130431 13 358 2.0 0.0 0.00 0.00 0.00 76 1025.2
20220125130328 13 358 2.0 0.0 0.00 0.00 0.00 76 1025.2
20220125130229 13 356 2.0 0.0 0.00 0.00 0.00 76 1025.0
20220125130133 13 355 5.0 0.0 0.00 0.00 0.00 76 1025.1
20220125130033 13 343 4.0 0.0 0.00 0.00 0.00 76 1025.1
20220125125931 13 336 3.0 0.0 0.00 0.00 0.00 76 1025.0
20220125125832 13 337 4.0 0.0 0.00 0.00 0.00 75 1025.1
20220125125734 13 351 2.0 0.0 0.00 0.00 0.00 75 1024.9
20220125125633 13 351 3.0 0.0 0.00 0.00 0.00 76 1024.8
20220125125531 13 351 4.0 0.0 0.00 0.00 0.00 75 1024.9
20220125125438 13 349 2.0 0.0 0.00 0.00 0.00 76 1025.0
20220125125338 13 359 5.0 0.0 0.00 0.00 0.00 75 1024.9
20220125125239 13 347 5.0 0.0 0.00 0.00 0.00 75 1024.9
20220125125141 13 353 10.0 0.0 0.00 0.00 0.00 75 1024.8
20220125125043 13 347 6.0 0.0 0.00 0.00 0.00 76 1024.8
20220125124941 13 0 6.0 0.0 0.00 0.00 0.00 75 1024.8
20220125124826 13 354 5.0 0.0 0.00 0.00 0.00 75 1024.9
20220125124728 13 346 7.0 0.0 0.00 0.00 0.00 75 1024.9
20220125124645 13 355 8.0 0.0 0.00 0.00 0.00 76 1024.9
20220125124523 13 336 4.0 0.0 0.00 0.00 0.00 75 1024.8
20220125124426 13 1 3.0 0.0 0.00 0.00 0.00 75 1024.8
20220125124345 13 21 4.0 0.0 0.00 0.00 0.00 75 1024.8
20220125124228 13 348 4.0 0.0 0.00 0.00 0.00 75 1024.9
20220125124129 13 347 2.0 0.0 0.00 0.00 0.00 75 1024.8
20220125124031 13 349 3.0 0.0 0.00 0.00 0.00 75 1024.8
20220125123934 13 12 1.0 0.0 0.00 0.00 0.00 76 1024.8
20220125123834 13 348 8.0 0.0 0.00 0.00 0.00 75 1024.7
20220125123733 13 7 5.0 0.0 0.00 0.00 0.00 76 1024.7
20220125123631 13 345 4.0 0.0 0.00 0.00 0.00 76 1024.7
20220125123536 13 359 5.0 0.0 0.00 0.00 0.00 76 1024.6
20220125123437 13 352 7.0 0.0 0.00 0.00 0.00 75 1024.6
20220125123334 13 5 2.0 0.0 0.00 0.00 0.00 76 1024.4
20220125123234 13 5 3.0 0.0 0.00 0.00 0.00 76 1024.6
20220125123135 13 353 3.0 0.0 0.00 0.00 0.00 76 1024.4
20220125123033 13 350 3.0 0.0 0.00 0.00 0.00 76 1024.4
20220125122939 13 342 4.0 0.0 0.00 0.00 0.00 76 1024.3
20220125122839 13 345 4.0 0.0 0.00 0.00 0.00 76 1024.3
20220125122742 13 340 4.0 0.0 0.00 0.00 0.00 76 1024.2
20220125122644 13 5 4.0 0.0 0.00 0.00 0.00 75 1024.2
20220125122543 13 2 5.0 0.0 0.00 0.00 0.00 75 1024.3
20220125122443 13 12 4.0 0.0 0.00 0.00 0.00 76 1024.2
20220125122326 13 354 4.0 0.0 0.00 0.00 0.00 76 1024.2
20220125122228 13 5 4.0 0.0 0.00 0.00 0.00 75 1024.0
20220125122129 13 8 5.0 0.0 0.00 0.00 0.00 76 1023.9
20220125122029 14 353 5.0 0.0 0.00 0.00 0.00 76 1024.1
20220125121928 14 351 3.0 0.0 0.00 0.00 0.00 76 1024.0
20220125121825 14 7 6.0 0.0 0.00 0.00 0.00 76 1024.1
20220125121746 14 1 3.0 0.0 0.00 0.00 0.00 76 1024.1
20220125121629 14 350 8.0 0.0 0.00 0.00 0.00 76 1023.9
20220125121531 14 0 5.0 0.0 0.00 0.00 0.00 76 1024.0
20220125121430 14 355 8.0 0.0 0.00 0.00 0.00 76 1024.0
20220125121329 14 6 4.0 0.0 0.00 0.00 0.00 76 1024.0
20220125121226 14 338 2.0 0.0 0.00 0.00 0.00 76 1024.1
20220125121146 14 340 5.0 0.0 0.00 0.00 0.00 76 1024.1
20220125121027 14 340 3.0 0.0 0.00 0.00 0.00 76 1023.9
20220125120926 14 348 4.0 0.0 0.00 0.00 0.00 76 1023.9
20220125120828 14 354 2.0 0.0 0.00 0.00 0.00 76 1023.9
20220125120729 14 354 2.0 0.0 0.00 0.00 0.00 76 1023.9
20220125120629 14 353 3.0 0.0 0.00 0.00 0.00 76 1023.8
20220125120528 14 8 3.0 0.0 0.00 0.00 0.00 76 1024.0